GEFSSE_prec_meanprecacc_150.txt.gz
Total_Precipitation_Accumulation
0.11 0.05 0.05 0.05 0.05 0.06 0.06 0.07 0.08 0.09 0.08 0.07 0.07 0.06 0.06 0.06 0.06 0.05 0.04 0.05 0.08 0.13 0.18 0.20 0.22 0.25 0.28 0.21 0.12 0.09 0.08 0.08 0.09 0.11 0.13 0.15 0.17 0.19 0.20 0.16 0.19 0.14 0.10
0.09 0.05 0.05 0.04 0.04 0.06 0.06 0.08 0.08 0.09 0.07 0.07 0.06 0.06 0.06 0.06 0.07 0.07 0.07 0.07 0.10 0.13 0.14 0.15 0.18 0.19 0.18 0.12 0.08 0.07 0.08 0.09 0.17 0.26 0.33 0.33 0.31 0.27 0.29 0.29 0.31 0.20 0.11
0.09 0.06 0.05 0.04 0.04 0.05 0.06 0.09 0.10 0.10 0.10 0.09 0.08 0.07 0.07 0.07 0.08 0.08 0.08 0.09 0.12 0.15 0.14 0.13 0.12 0.12 0.09 0.08 0.07 0.08 0.11 0.16 0.30 0.47 0.73 0.87 0.66 0.49 0.36 0.31 0.28 0.19 0.16
0.08 0.06 0.05 0.04 0.04 0.04 0.05 0.07 0.10 0.10 0.09 0.08 0.08 0.07 0.07 0.07 0.08 0.09 0.10 0.12 0.16 0.19 0.17 0.13 0.10 0.08 0.06 0.06 0.06 0.09 0.14 0.22 0.40 0.68 1.28 1.16 1.07 0.82 0.44 0.31 0.25 0.25 0.32
0.06 0.05 0.05 0.05 0.05 0.04 0.05 0.06 0.08 0.09 0.08 0.08 0.08 0.07 0.08 0.08 0.08 0.10 0.15 0.18 0.20 0.20 0.21 0.18 0.13 0.09 0.06 0.05 0.07 0.11 0.17 0.28 0.54 0.89 1.35 1.60 1.71 1.09 0.59 0.42 0.34 0.33 0.41
0.08 0.05 0.05 0.05 0.06 0.06 0.06 0.07 0.09 0.10 0.10 0.10 0.10 0.10 0.10 0.10 0.11 0.14 0.22 0.28 0.26 0.24 0.27 0.26 0.21 0.15 0.08 0.07 0.09 0.13 0.22 0.36 0.56 0.88 1.35 1.91 1.67 1.10 0.73 0.54 0.46 0.43 0.48
0.10 0.08 0.07 0.09 0.10 0.09 0.08 0.09 0.11 0.13 0.15 0.17 0.16 0.16 0.15 0.15 0.17 0.22 0.29 0.31 0.30 0.29 0.29 0.25 0.18 0.12 0.09 0.10 0.11 0.15 0.26 0.40 0.56 1.01 1.43 1.76 1.49 0.99 0.74 0.57 0.49 0.46 0.49
0.14 0.10 0.09 0.12 0.13 0.13 0.13 0.14 0.17 0.19 0.20 0.21 0.20 0.20 0.18 0.17 0.19 0.25 0.29 0.31 0.31 0.28 0.23 0.18 0.15 0.13 0.13 0.14 0.15 0.19 0.27 0.33 0.44 0.91 1.28 1.40 1.10 0.86 0.71 0.55 0.45 0.39 0.37
0.22 0.21 0.19 0.20 0.19 0.21 0.25 0.28 0.28 0.28 0.27 0.25 0.23 0.20 0.18 0.19 0.22 0.25 0.30 0.35 0.33 0.24 0.19 0.17 0.15 0.13 0.12 0.12 0.12 0.15 0.20 0.30 0.39 0.71 1.20 1.39 0.90 0.80 0.73 0.54 0.39 0.33 0.33
0.49 0.49 0.46 0.41 0.35 0.31 0.32 0.35 0.37 0.37 0.35 0.31 0.25 0.21 0.23 0.26 0.28 0.32 0.30 0.31 0.30 0.24 0.20 0.17 0.15 0.12 0.11 0.10 0.10 0.13 0.18 0.21 0.29 0.64 1.05 1.11 0.93 0.97 0.93 0.70 0.47 0.36 0.33
0.94 0.96 0.85 0.73 0.60 0.61 0.56 0.45 0.48 0.48 0.46 0.40 0.35 0.30 0.33 0.41 0.46 0.50 0.43 0.44 0.35 0.29 0.25 0.23 0.19 0.17 0.15 0.13 0.14 0.16 0.16 0.21 0.39 0.69 1.17 1.18 1.20 1.18 1.12 0.93 0.69 0.53 0.46
1.35 1.23 1.04 1.03 0.98 0.92 0.80 0.70 0.70 0.61 0.58 0.52 0.58 0.50 0.56 0.80 0.92 0.82 0.78 0.63 0.56 0.48 0.40 0.37 0.34 0.27 0.20 0.21 0.25 0.23 0.19 0.26 0.42 0.71 0.99 1.12 1.19 1.31 1.27 1.07 0.85 0.71 0.65
1.44 1.25 1.22 1.32 1.27 1.30 1.26 1.20 1.08 1.01 0.94 0.82 0.91 0.87 0.93 0.95 0.93 0.97 1.01 0.86 0.78 0.73 0.70 0.69 0.53 0.41 0.41 0.46 0.48 0.40 0.32 0.37 0.44 0.63 0.88 1.02 1.12 1.33 1.39 1.20 0.98 0.90 0.80
1.77 1.54 1.44 1.33 1.40 1.57 1.55 1.50 1.48 1.45 1.42 1.34 1.30 1.15 1.23 1.30 1.31 1.25 1.36 1.33 1.32 1.24 1.14 1.03 0.90 0.76 0.70 0.72 0.74 0.72 0.61 0.55 0.66 0.83 0.98 0.96 1.04 1.27 1.40 1.30 1.13 1.04 0.95
2.20 2.02 1.77 1.70 1.66 1.68 1.76 1.77 1.53 1.56 1.63 1.76 1.72 1.51 1.52 1.49 1.52 1.66 1.70 1.75 1.65 1.73 1.64 1.43 1.20 1.11 1.02 0.88 0.86 0.88 0.84 0.82 0.86 0.93 1.08 1.13 1.11 1.26 1.45 1.47 1.34 1.23 1.21
2.35 2.27 2.09 1.93 1.87 1.77 1.93 2.06 1.91 1.76 1.80 1.83 1.88 1.74 1.72 1.73 1.79 1.87 1.91 1.96 1.83 1.81 1.85 1.71 1.45 1.34 1.26 1.13 1.01 0.95 0.92 0.98 1.01 0.99 1.16 1.26 1.19 1.15 1.33 1.57 1.65 1.65 1.63
2.41 2.26 2.28 2.14 2.23 2.28 2.42 2.44 2.43 2.34 2.30 2.24 2.15 2.16 2.08 2.03 2.05 2.01 2.17 2.25 2.12 2.05 2.01 1.88 1.77 1.56 1.51 1.47 1.39 1.26 1.16 1.14 1.22 1.31 1.36 1.46 1.49 1.38 1.38 1.56 1.73 1.80 1.82
2.25 2.29 2.41 2.32 2.39 2.54 2.49 2.37 2.42 2.62 2.61 2.52 2.44 2.47 2.35 2.33 2.38 2.46 2.41 2.32 2.24 2.21 2.20 2.23 2.06 1.85 1.78 1.86 1.78 1.54 1.33 1.34 1.45 1.51 1.49 1.57 1.68 1.59 1.57 1.49 1.55 1.66 1.77
2.21 2.11 2.21 2.39 2.35 2.49 2.50 2.44 2.50 2.76 2.90 2.93 2.90 2.81 2.69 2.66 2.70 2.85 2.89 2.70 2.48 2.38 2.38 2.25 2.23 2.13 2.12 2.11 1.83 1.61 1.40 1.36 1.44 1.47 1.48 1.56 1.73 1.78 1.76 1.58 1.58 1.75 1.84
2.14 2.14 2.16 2.39 2.36 2.52 2.65 2.57 2.62 2.69 2.80 2.92 3.05 3.15 3.29 3.31 3.27 3.27 3.15 2.95 2.79 2.67 2.62 2.52 2.45 2.38 2.23 2.08 1.72 1.55 1.39 1.29 1.31 1.38 1.42 1.46 1.51 1.56 1.59 1.57 1.60 1.58 1.67
2.22 2.24 2.16 2.20 2.37 2.46 2.63 2.78 3.01 3.02 3.01 3.27 3.54 3.68 3.88 3.93 3.74 3.68 3.57 3.37 3.17 2.96 2.81 2.62 2.48 2.38 2.20 2.02 1.84 1.66 1.41 1.21 1.22 1.27 1.26 1.27 1.32 1.32 1.37 1.43 1.54 1.52 1.46
2.29 2.25 2.29 2.47 2.54 2.67 3.01 3.47 3.87 4.18 4.33 4.43 4.65 4.66 4.54 4.38 4.24 4.10 3.96 3.73 3.46 3.21 2.97 2.76 2.51 2.33 2.14 1.97 1.89 1.91 1.70 1.47 1.18 1.02 1.01 1.01 1.03 1.02 1.08 1.17 1.21 1.25 1.25
2.12 2.28 2.34 2.64 3.00 3.35 3.84 4.39 4.81 5.16 5.37 5.27 5.10 4.97 4.73 4.49 4.29 3.98 3.74 3.66 3.44 3.09 2.85 2.67 2.45 2.26 2.04 1.88 1.77 1.85 1.80 1.63 1.37 1.18 0.99 0.87 0.87 0.94 0.98 1.07 1.10 1.05 1.03
1.85 2.12 2.42 2.72 3.27 4.01 4.68 5.24 5.71 5.91 5.88 5.73 5.47 5.09 4.69 4.35 4.01 3.69 3.40 3.13 2.90 2.64 2.41 2.26 2.15 2.07 1.97 1.85 1.76 1.56 1.37 1.23 1.27 1.22 1.07 0.95 0.89 0.92 0.91 0.89 0.92 0.94 0.92
1.67 1.95 2.32 2.77 3.42 4.09 4.71 5.29 5.74 5.93 5.83 5.55 5.10 4.58 4.07 3.59 3.22 2.93 2.67 2.39 2.15 1.97 1.82 1.66 1.61 1.72 1.79 1.78 1.76 1.67 1.49 1.31 1.19 1.13 1.11 1.06 1.00 0.98 0.93 0.89 0.85 0.85 0.82
1.44 1.75 2.12 2.55 3.07 3.57 4.00 4.55 4.88 5.05 4.98 4.64 4.15 3.55 3.09 2.76 2.47 2.24 2.01 1.78 1.58 1.43 1.33 1.26 1.24 1.30 1.40 1.47 1.51 1.52 1.51 1.51 1.44 1.33 1.26 1.20 1.16 1.12 1.03 0.97 0.94 0.92 0.89

GEFSSE_prec_meanprecacc_156.txt.gz
Total_Precipitation_Accumulation
0.12 0.06 0.06 0.05 0.05 0.06 0.06 0.07 0.08 0.09 0.08 0.07 0.07 0.06 0.06 0.06 0.06 0.05 0.04 0.06 0.08 0.14 0.18 0.21 0.23 0.26 0.29 0.22 0.13 0.10 0.09 0.08 0.09 0.12 0.15 0.17 0.20 0.23 0.24 0.19 0.21 0.16 0.13
0.10 0.06 0.06 0.04 0.05 0.06 0.06 0.08 0.09 0.09 0.07 0.07 0.06 0.06 0.06 0.06 0.07 0.07 0.07 0.08 0.10 0.13 0.14 0.16 0.18 0.19 0.18 0.13 0.09 0.08 0.09 0.10 0.18 0.29 0.37 0.37 0.35 0.32 0.34 0.34 0.33 0.21 0.13
0.10 0.07 0.06 0.05 0.04 0.06 0.06 0.09 0.10 0.10 0.10 0.09 0.08 0.07 0.07 0.08 0.08 0.08 0.08 0.09 0.13 0.15 0.14 0.13 0.13 0.12 0.10 0.08 0.07 0.10 0.14 0.19 0.34 0.51 0.77 0.90 0.70 0.54 0.43 0.37 0.31 0.21 0.18
0.10 0.08 0.06 0.05 0.04 0.05 0.06 0.07 0.10 0.10 0.09 0.08 0.08 0.07 0.07 0.07 0.08 0.09 0.10 0.12 0.17 0.19 0.18 0.14 0.11 0.08 0.07 0.06 0.07 0.11 0.17 0.26 0.46 0.73 1.30 1.20 1.11 0.86 0.49 0.35 0.29 0.27 0.33
0.09 0.08 0.07 0.06 0.05 0.05 0.05 0.06 0.08 0.09 0.08 0.08 0.08 0.08 0.08 0.08 0.08 0.11 0.15 0.19 0.20 0.20 0.22 0.19 0.14 0.09 0.07 0.06 0.08 0.13 0.20 0.32 0.61 0.94 1.37 1.63 1.76 1.14 0.64 0.47 0.38 0.35 0.41
0.10 0.07 0.06 0.06 0.06 0.06 0.06 0.07 0.09 0.10 0.10 0.10 0.10 0.10 0.10 0.11 0.11 0.14 0.22 0.28 0.27 0.24 0.27 0.26 0.21 0.15 0.09 0.08 0.10 0.16 0.25 0.41 0.61 0.92 1.39 1.93 1.70 1.14 0.79 0.60 0.51 0.47 0.50
0.11 0.09 0.08 0.10 0.11 0.10 0.09 0.10 0.12 0.13 0.15 0.17 0.17 0.16 0.16 0.16 0.17 0.22 0.29 0.31 0.30 0.29 0.29 0.26 0.19 0.12 0.10 0.11 0.12 0.17 0.29 0.45 0.59 1.05 1.46 1.78 1.51 1.04 0.79 0.62 0.54 0.51 0.53
0.15 0.11 0.09 0.13 0.15 0.14 0.14 0.15 0.17 0.19 0.20 0.21 0.21 0.20 0.18 0.17 0.20 0.25 0.29 0.32 0.32 0.28 0.24 0.19 0.15 0.13 0.13 0.14 0.16 0.20 0.29 0.35 0.46 0.95 1.31 1.43 1.13 0.92 0.77 0.60 0.50 0.45 0.43
0.23 0.21 0.20 0.21 0.20 0.22 0.27 0.29 0.29 0.28 0.27 0.26 0.23 0.21 0.18 0.19 0.22 0.26 0.31 0.36 0.34 0.25 0.20 0.18 0.16 0.14 0.13 0.13 0.14 0.17 0.23 0.33 0.41 0.74 1.22 1.43 0.95 0.86 0.81 0.62 0.46 0.39 0.39
0.49 0.50 0.47 0.42 0.36 0.32 0.32 0.36 0.38 0.38 0.36 0.31 0.26 0.22 0.23 0.26 0.29 0.33 0.31 0.33 0.31 0.26 0.22 0.19 0.17 0.14 0.13 0.12 0.12 0.15 0.20 0.23 0.30 0.65 1.07 1.14 0.96 1.03 1.03 0.81 0.55 0.43 0.38
0.95 0.97 0.86 0.74 0.61 0.62 0.57 0.46 0.49 0.49 0.47 0.40 0.35 0.31 0.34 0.41 0.48 0.52 0.44 0.47 0.39 0.32 0.29 0.27 0.23 0.20 0.17 0.15 0.17 0.19 0.19 0.22 0.40 0.70 1.19 1.20 1.25 1.27 1.24 1.04 0.78 0.62 0.52
1.36 1.24 1.05 1.04 0.99 0.93 0.81 0.71 0.70 0.61 0.58 0.53 0.59 0.50 0.56 0.81 0.93 0.83 0.80 0.66 0.60 0.53 0.45 0.42 0.38 0.31 0.23 0.23 0.27 0.26 0.21 0.28 0.44 0.73 1.01 1.15 1.26 1.41 1.39 1.18 0.94 0.79 0.73
1.46 1.26 1.24 1.34 1.29 1.31 1.27 1.21 1.10 1.03 0.95 0.84 0.92 0.89 0.94 0.96 0.94 1.00 1.03 0.89 0.81 0.76 0.73 0.72 0.56 0.45 0.44 0.49 0.49 0.41 0.35 0.40 0.46 0.65 0.91 1.05 1.18 1.43 1.51 1.32 1.10 1.00 0.90
1.80 1.56 1.45 1.34 1.41 1.59 1.57 1.52 1.50 1.47 1.43 1.35 1.31 1.16 1.24 1.30 1.33 1.29 1.39 1.36 1.35 1.27 1.18 1.08 0.94 0.81 0.75 0.76 0.78 0.76 0.64 0.58 0.68 0.86 1.02 1.01 1.09 1.36 1.53 1.46 1.27 1.16 1.04
2.23 2.04 1.79 1.71 1.68 1.69 1.77 1.78 1.54 1.58 1.65 1.77 1.72 1.52 1.53 1.50 1.54 1.70 1.73 1.79 1.70 1.77 1.68 1.49 1.26 1.17 1.08 0.93 0.90 0.91 0.88 0.85 0.89 0.95 1.12 1.19 1.18 1.33 1.56 1.63 1.49 1.37 1.33
2.39 2.29 2.11 1.94 1.89 1.79 1.95 2.09 1.95 1.80 1.83 1.85 1.91 1.78 1.77 1.78 1.84 1.91 1.96 2.02 1.88 1.85 1.88 1.76 1.51 1.39 1.33 1.20 1.06 1.00 0.97 1.03 1.06 1.02 1.20 1.31 1.26 1.23 1.42 1.69 1.79 1.81 1.81
2.49 2.30 2.31 2.17 2.27 2.33 2.47 2.49 2.49 2.40 2.37 2.30 2.22 2.22 2.15 2.11 2.13 2.08 2.25 2.32 2.17 2.10 2.07 1.96 1.85 1.64 1.59 1.54 1.46 1.31 1.21 1.19 1.26 1.36 1.41 1.52 1.54 1.44 1.46 1.65 1.83 1.93 1.98
2.37 2.40 2.47 2.38 2.45 2.61 2.56 2.44 2.48 2.69 2.69 2.62 2.54 2.56 2.43 2.41 2.46 2.54 2.49 2.38 2.30 2.27 2.27 2.31 2.16 1.95 1.87 1.94 1.85 1.60 1.38 1.39 1.49 1.54 1.53 1.61 1.73 1.64 1.63 1.56 1.63 1.76 1.89
2.27 2.20 2.32 2.47 2.40 2.55 2.58 2.53 2.59 2.83 2.96 2.99 2.97 2.87 2.76 2.73 2.76 2.90 2.95 2.75 2.53 2.45 2.45 2.35 2.34 2.24 2.23 2.19 1.89 1.66 1.44 1.40 1.48 1.51 1.52 1.60 1.76 1.81 1.80 1.63 1.65 1.83 1.94
2.20 2.20 2.24 2.49 2.45 2.60 2.73 2.63 2.70 2.74 2.83 2.96 3.09 3.18 3.32 3.36 3.34 3.33 3.20 3.00 2.83 2.72 2.68 2.59 2.53 2.50 2.35 2.18 1.80 1.62 1.44 1.33 1.35 1.42 1.46 1.49 1.54 1.59 1.63 1.62 1.64 1.62 1.73
2.30 2.31 2.23 2.27 2.43 2.51 2.66 2.80 3.04 3.04 3.02 3.29 3.55 3.70 3.91 3.98 3.81 3.75 3.63 3.42 3.23 3.02 2.86 2.69 2.55 2.46 2.28 2.10 1.92 1.72 1.47 1.24 1.25 1.30 1.30 1.32 1.37 1.37 1.43 1.48 1.59 1.56 1.49
2.36 2.33 2.39 2.57 2.61 2.71 3.04 3.49 3.89 4.19 4.35 4.44 4.65 4.68 4.59 4.44 4.30 4.17 4.03 3.79 3.52 3.29 3.05 2.82 2.56 2.38 2.20 2.03 1.96 1.98 1.75 1.51 1.21 1.05 1.04 1.05 1.08 1.08 1.13 1.22 1.24 1.28 1.28
2.19 2.36 2.43 2.74 3.08 3.42 3.89 4.42 4.83 5.18 5.38 5.28 5.11 4.99 4.78 4.56 4.36 4.04 3.81 3.72 3.49 3.14 2.91 2.72 2.51 2.31 2.10 1.95 1.84 1.93 1.86 1.67 1.40 1.21 1.02 0.90 0.90 0.97 1.02 1.10 1.13 1.08 1.05
1.93 2.20 2.50 2.81 3.36 4.10 4.74 5.28 5.74 5.93 5.90 5.76 5.49 5.11 4.72 4.40 4.07 3.76 3.48 3.19 2.94 2.68 2.45 2.30 2.18 2.10 2.01 1.90 1.81 1.61 1.42 1.27 1.31 1.26 1.11 0.98 0.92 0.95 0.93 0.91 0.94 0.96 0.94
1.78 2.06 2.44 2.88 3.52 4.17 4.78 5.34 5.77 5.95 5.85 5.57 5.13 4.62 4.13 3.66 3.28 2.99 2.73 2.45 2.20 2.00 1.84 1.68 1.63 1.74 1.81 1.81 1.80 1.72 1.54 1.36 1.23 1.17 1.16 1.10 1.02 0.99 0.95 0.90 0.87 0.86 0.83
1.55 1.86 2.23 2.66 3.19 3.67 4.07 4.59 4.91 5.07 5.00 4.67 4.18 3.59 3.15 2.83 2.52 2.26 2.03 1.83 1.63 1.47 1.36 1.28 1.26 1.32 1.41 1.49 1.52 1.54 1.54 1.54 1.49 1.38 1.30 1.25 1.20 1.14 1.04 0.98 0.95 0.94 0.90

GEFSSE_prec_meanprecacc_162.txt.gz
Total_Precipitation_Accumulation
0.13 0.07 0.07 0.06 0.06 0.07 0.06 0.08 0.09 0.10 0.08 0.08 0.07 0.07 0.07 0.06 0.06 0.05 0.05 0.06 0.08 0.14 0.18 0.21 0.23 0.26 0.29 0.23 0.14 0.10 0.09 0.09 0.10 0.12 0.15 0.18 0.20 0.24 0.25 0.20 0.22 0.17 0.14
0.12 0.07 0.07 0.06 0.06 0.07 0.07 0.08 0.09 0.09 0.08 0.07 0.07 0.06 0.06 0.06 0.07 0.07 0.07 0.08 0.11 0.13 0.14 0.16 0.18 0.20 0.18 0.13 0.09 0.09 0.09 0.11 0.19 0.30 0.38 0.38 0.36 0.33 0.35 0.35 0.34 0.23 0.13
0.13 0.09 0.07 0.06 0.06 0.06 0.07 0.09 0.10 0.10 0.10 0.09 0.08 0.07 0.07 0.08 0.08 0.08 0.08 0.09 0.13 0.15 0.14 0.13 0.13 0.12 0.10 0.09 0.08 0.10 0.15 0.20 0.35 0.52 0.79 0.91 0.71 0.55 0.44 0.38 0.32 0.21 0.19
0.14 0.11 0.08 0.07 0.06 0.06 0.06 0.08 0.10 0.10 0.09 0.09 0.08 0.07 0.07 0.08 0.08 0.09 0.10 0.12 0.17 0.20 0.18 0.14 0.11 0.08 0.07 0.07 0.08 0.12 0.18 0.27 0.48 0.73 1.31 1.20 1.11 0.87 0.50 0.38 0.31 0.29 0.34
0.12 0.11 0.10 0.09 0.07 0.07 0.06 0.06 0.09 0.10 0.09 0.09 0.08 0.08 0.09 0.09 0.09 0.11 0.16 0.19 0.20 0.21 0.22 0.19 0.14 0.10 0.07 0.07 0.09 0.14 0.21 0.33 0.63 0.96 1.38 1.64 1.77 1.16 0.67 0.50 0.43 0.40 0.44
0.11 0.09 0.09 0.10 0.09 0.09 0.09 0.09 0.10 0.12 0.11 0.12 0.11 0.12 0.12 0.12 0.12 0.16 0.24 0.29 0.28 0.25 0.27 0.26 0.21 0.15 0.09 0.08 0.10 0.16 0.26 0.42 0.63 0.94 1.41 1.94 1.72 1.17 0.82 0.65 0.57 0.52 0.55
0.13 0.13 0.11 0.13 0.14 0.13 0.14 0.13 0.15 0.15 0.17 0.19 0.18 0.17 0.17 0.17 0.18 0.24 0.31 0.33 0.32 0.30 0.30 0.26 0.19 0.13 0.10 0.11 0.13 0.18 0.31 0.47 0.62 1.09 1.50 1.81 1.55 1.07 0.83 0.68 0.61 0.58 0.58
0.17 0.13 0.13 0.16 0.18 0.18 0.19 0.18 0.19 0.21 0.22 0.22 0.22 0.22 0.20 0.19 0.22 0.27 0.32 0.34 0.34 0.30 0.25 0.20 0.17 0.15 0.15 0.15 0.17 0.22 0.32 0.38 0.48 0.97 1.34 1.47 1.17 0.96 0.83 0.65 0.55 0.51 0.48
0.25 0.24 0.23 0.25 0.24 0.25 0.30 0.31 0.30 0.30 0.29 0.26 0.24 0.22 0.20 0.22 0.25 0.29 0.34 0.39 0.37 0.28 0.23 0.20 0.18 0.16 0.15 0.15 0.16 0.19 0.25 0.35 0.43 0.76 1.25 1.48 0.98 0.91 0.89 0.71 0.54 0.47 0.45
0.52 0.53 0.51 0.48 0.42 0.38 0.36 0.38 0.40 0.39 0.37 0.33 0.27 0.23 0.24 0.28 0.31 0.36 0.34 0.37 0.35 0.30 0.25 0.23 0.19 0.16 0.15 0.15 0.14 0.17 0.23 0.26 0.32 0.66 1.10 1.17 0.98 1.10 1.14 0.92 0.65 0.52 0.45
0.97 0.99 0.88 0.77 0.65 0.67 0.61 0.48 0.50 0.50 0.48 0.42 0.36 0.32 0.35 0.43 0.50 0.55 0.47 0.50 0.44 0.38 0.34 0.33 0.27 0.24 0.22 0.20 0.20 0.22 0.23 0.26 0.44 0.74 1.26 1.24 1.30 1.36 1.36 1.15 0.88 0.71 0.60
1.37 1.25 1.07 1.07 1.02 0.96 0.83 0.74 0.74 0.64 0.60 0.55 0.61 0.52 0.59 0.85 0.96 0.86 0.83 0.69 0.65 0.58 0.51 0.49 0.45 0.36 0.30 0.30 0.33 0.32 0.26 0.32 0.48 0.79 1.08 1.20 1.31 1.49 1.50 1.30 1.05 0.88 0.83
1.47 1.28 1.26 1.37 1.31 1.34 1.30 1.24 1.13 1.05 0.99 0.88 0.96 0.92 0.98 0.99 0.97 1.03 1.06 0.93 0.85 0.81 0.82 0.81 0.63 0.53 0.53 0.57 0.56 0.47 0.40 0.45 0.52 0.71 0.96 1.10 1.25 1.53 1.64 1.47 1.24 1.13 1.03
1.82 1.58 1.47 1.35 1.43 1.61 1.58 1.53 1.52 1.49 1.46 1.38 1.34 1.19 1.27 1.34 1.37 1.33 1.41 1.39 1.39 1.32 1.26 1.17 1.04 0.92 0.86 0.87 0.86 0.83 0.71 0.65 0.76 0.93 1.08 1.06 1.16 1.44 1.66 1.63 1.42 1.31 1.18
2.27 2.07 1.80 1.73 1.69 1.72 1.80 1.80 1.56 1.60 1.67 1.79 1.75 1.54 1.56 1.55 1.60 1.75 1.78 1.84 1.75 1.84 1.76 1.58 1.36 1.26 1.18 1.04 1.01 1.03 0.97 0.93 0.96 1.02 1.18 1.23 1.22 1.39 1.65 1.77 1.63 1.50 1.45
2.44 2.34 2.13 1.97 1.92 1.82 1.98 2.13 1.98 1.83 1.86 1.87 1.94 1.82 1.81 1.83 1.89 1.98 2.03 2.08 1.94 1.93 1.97 1.87 1.61 1.48 1.42 1.29 1.16 1.09 1.03 1.08 1.12 1.09 1.25 1.35 1.29 1.27 1.49 1.80 1.92 1.96 1.96
2.56 2.34 2.34 2.20 2.30 2.36 2.51 2.52 2.52 2.44 2.41 2.34 2.26 2.27 2.20 2.17 2.19 2.15 2.33 2.40 2.23 2.16 2.14 2.07 1.96 1.74 1.67 1.61 1.54 1.40 1.27 1.25 1.32 1.41 1.45 1.57 1.59 1.49 1.53 1.73 1.93 2.04 2.11
2.42 2.44 2.51 2.41 2.48 2.64 2.59 2.47 2.51 2.72 2.72 2.65 2.58 2.61 2.49 2.47 2.52 2.60 2.55 2.45 2.37 2.33 2.34 2.41 2.26 2.04 1.94 2.02 1.94 1.70 1.45 1.44 1.53 1.58 1.58 1.67 1.80 1.70 1.70 1.62 1.70 1.84 1.99
2.32 2.24 2.36 2.51 2.44 2.59 2.62 2.58 2.62 2.86 3.00 3.02 3.00 2.90 2.80 2.78 2.81 2.95 2.99 2.81 2.60 2.52 2.53 2.41 2.41 2.31 2.29 2.26 1.96 1.74 1.51 1.45 1.52 1.54 1.56 1.65 1.82 1.87 1.87 1.69 1.72 1.90 2.01
2.26 2.26 2.30 2.55 2.51 2.67 2.78 2.66 2.73 2.76 2.86 2.98 3.12 3.21 3.34 3.38 3.36 3.35 3.24 3.06 2.90 2.78 2.75 2.66 2.62 2.59 2.43 2.27 1.89 1.70 1.51 1.38 1.39 1.46 1.50 1.55 1.59 1.64 1.68 1.69 1.73 1.70 1.80
2.39 2.41 2.33 2.36 2.53 2.60 2.73 2.86 3.10 3.08 3.06 3.32 3.58 3.72 3.92 3.99 3.82 3.77 3.66 3.48 3.29 3.08 2.93 2.78 2.66 2.56 2.37 2.18 2.00 1.81 1.55 1.31 1.31 1.35 1.34 1.37 1.43 1.42 1.47 1.53 1.65 1.62 1.56
2.46 2.45 2.50 2.66 2.69 2.78 3.11 3.57 3.97 4.26 4.40 4.49 4.69 4.70 4.60 4.45 4.32 4.19 4.07 3.85 3.59 3.36 3.12 2.91 2.68 2.48 2.29 2.12 2.05 2.09 1.88 1.62 1.29 1.11 1.10 1.11 1.14 1.14 1.19 1.27 1.30 1.34 1.33
2.26 2.43 2.52 2.80 3.14 3.48 3.95 4.48 4.88 5.23 5.43 5.31 5.13 5.01 4.79 4.58 4.38 4.07 3.84 3.76 3.54 3.20 2.97 2.79 2.59 2.40 2.19 2.03 1.92 2.03 1.99 1.81 1.49 1.29 1.08 0.95 0.94 1.02 1.05 1.14 1.19 1.15 1.11
1.98 2.24 2.57 2.87 3.42 4.16 4.81 5.35 5.80 5.98 5.95 5.79 5.52 5.14 4.74 4.41 4.08 3.78 3.51 3.24 3.00 2.73 2.50 2.34 2.24 2.18 2.08 1.95 1.87 1.68 1.50 1.39 1.43 1.34 1.17 1.03 0.96 0.99 0.97 0.94 0.97 0.99 0.98
1.81 2.10 2.48 2.92 3.58 4.22 4.84 5.40 5.82 6.00 5.88 5.60 5.14 4.64 4.15 3.69 3.32 3.03 2.77 2.49 2.25 2.06 1.90 1.73 1.68 1.80 1.88 1.87 1.85 1.77 1.61 1.44 1.33 1.28 1.23 1.15 1.07 1.04 1.00 0.95 0.91 0.89 0.85
1.58 1.89 2.26 2.69 3.22 3.72 4.11 4.63 4.95 5.10 5.02 4.69 4.19 3.60 3.16 2.85 2.56 2.30 2.06 1.86 1.67 1.51 1.40 1.33 1.31 1.36 1.47 1.54 1.57 1.59 1.59 1.60 1.55 1.45 1.37 1.32 1.26 1.19 1.10 1.05 1.00 0.97 0.93

GEFSSE_prec_meanprecacc_168.txt.gz
Total_Precipitation_Accumulation
0.13 0.07 0.07 0.06 0.06 0.07 0.07 0.09 0.10 0.10 0.09 0.08 0.08 0.07 0.07 0.07 0.06 0.05 0.05 0.06 0.09 0.14 0.18 0.21 0.23 0.26 0.29 0.23 0.14 0.10 0.09 0.09 0.10 0.12 0.15 0.18 0.20 0.24 0.25 0.20 0.26 0.24 0.17
0.12 0.07 0.07 0.06 0.06 0.07 0.07 0.08 0.10 0.10 0.08 0.08 0.07 0.07 0.06 0.06 0.07 0.07 0.07 0.08 0.11 0.13 0.14 0.16 0.18 0.20 0.19 0.13 0.09 0.09 0.09 0.11 0.19 0.30 0.38 0.38 0.36 0.33 0.35 0.35 0.38 0.32 0.16
0.14 0.09 0.07 0.06 0.06 0.07 0.07 0.09 0.11 0.11 0.10 0.10 0.09 0.08 0.08 0.08 0.08 0.08 0.08 0.09 0.13 0.15 0.15 0.14 0.13 0.12 0.10 0.09 0.08 0.10 0.15 0.20 0.35 0.53 0.82 0.98 0.75 0.57 0.45 0.38 0.33 0.24 0.21
0.15 0.12 0.09 0.07 0.07 0.06 0.06 0.08 0.11 0.11 0.10 0.10 0.09 0.08 0.08 0.08 0.08 0.09 0.10 0.12 0.17 0.20 0.18 0.14 0.11 0.08 0.07 0.07 0.08 0.12 0.18 0.28 0.48 0.74 1.37 1.32 1.20 0.95 0.53 0.39 0.32 0.30 0.36
0.13 0.12 0.12 0.10 0.08 0.07 0.07 0.08 0.11 0.11 0.10 0.10 0.10 0.10 0.10 0.10 0.10 0.12 0.16 0.19 0.21 0.21 0.22 0.19 0.14 0.10 0.07 0.07 0.09 0.14 0.21 0.33 0.63 0.96 1.41 1.71 1.86 1.23 0.70 0.52 0.44 0.42 0.48
0.12 0.11 0.10 0.11 0.11 0.10 0.10 0.10 0.12 0.13 0.12 0.13 0.12 0.13 0.13 0.13 0.13 0.17 0.25 0.30 0.28 0.26 0.28 0.26 0.22 0.15 0.09 0.08 0.10 0.17 0.27 0.43 0.64 0.96 1.43 2.00 1.79 1.24 0.85 0.67 0.58 0.54 0.58
0.15 0.16 0.12 0.14 0.15 0.15 0.15 0.14 0.17 0.17 0.18 0.20 0.19 0.18 0.18 0.17 0.19 0.24 0.32 0.34 0.33 0.31 0.31 0.27 0.20 0.13 0.11 0.12 0.13 0.18 0.31 0.47 0.63 1.13 1.53 1.85 1.62 1.14 0.86 0.69 0.63 0.60 0.61
0.19 0.16 0.14 0.16 0.19 0.20 0.21 0.22 0.22 0.23 0.23 0.24 0.23 0.23 0.20 0.20 0.23 0.28 0.33 0.35 0.35 0.31 0.26 0.21 0.18 0.15 0.16 0.17 0.18 0.23 0.32 0.38 0.49 1.00 1.39 1.51 1.23 1.02 0.89 0.69 0.59 0.55 0.54
0.27 0.27 0.26 0.27 0.26 0.27 0.31 0.33 0.32 0.31 0.30 0.28 0.25 0.23 0.21 0.23 0.26 0.30 0.36 0.40 0.38 0.29 0.24 0.21 0.19 0.17 0.16 0.16 0.17 0.20 0.26 0.37 0.46 0.79 1.30 1.54 1.03 0.96 0.94 0.75 0.60 0.53 0.51
0.55 0.57 0.56 0.55 0.49 0.43 0.39 0.40 0.41 0.41 0.38 0.34 0.28 0.24 0.25 0.30 0.34 0.39 0.36 0.39 0.36 0.31 0.26 0.24 0.20 0.17 0.17 0.17 0.17 0.19 0.25 0.29 0.36 0.72 1.17 1.26 1.06 1.17 1.21 0.98 0.72 0.59 0.52
1.04 1.03 0.94 0.85 0.74 0.76 0.70 0.52 0.54 0.52 0.50 0.43 0.39 0.34 0.38 0.47 0.59 0.64 0.53 0.54 0.47 0.40 0.36 0.34 0.30 0.26 0.24 0.23 0.23 0.25 0.27 0.31 0.51 0.82 1.37 1.41 1.44 1.45 1.45 1.24 0.96 0.79 0.68
1.45 1.31 1.13 1.15 1.12 1.05 0.91 0.83 0.82 0.71 0.68 0.61 0.70 0.60 0.67 0.95 1.06 0.95 0.91 0.74 0.67 0.60 0.53 0.52 0.48 0.40 0.34 0.37 0.42 0.39 0.31 0.37 0.53 0.84 1.17 1.32 1.43 1.57 1.57 1.37 1.13 0.97 0.93
1.54 1.32 1.30 1.42 1.37 1.40 1.38 1.32 1.20 1.14 1.08 0.97 1.06 1.03 1.09 1.10 1.07 1.11 1.16 1.02 0.93 0.87 0.89 0.91 0.71 0.60 0.63 0.67 0.65 0.55 0.46 0.49 0.56 0.77 1.08 1.22 1.33 1.60 1.70 1.53 1.32 1.22 1.13
1.88 1.63 1.51 1.39 1.48 1.66 1.63 1.60 1.59 1.56 1.54 1.45 1.42 1.27 1.37 1.44 1.47 1.44 1.51 1.49 1.51 1.45 1.39 1.31 1.15 1.01 0.95 0.96 0.94 0.89 0.75 0.70 0.81 1.00 1.17 1.15 1.21 1.49 1.72 1.70 1.50 1.39 1.27
2.33 2.12 1.85 1.77 1.74 1.77 1.85 1.87 1.63 1.69 1.74 1.87 1.84 1.63 1.65 1.64 1.68 1.85 1.88 1.96 1.87 1.97 1.89 1.72 1.46 1.34 1.26 1.10 1.08 1.09 1.02 0.97 1.01 1.09 1.27 1.33 1.27 1.42 1.69 1.83 1.69 1.56 1.52
2.49 2.38 2.18 2.00 1.95 1.86 2.04 2.20 2.06 1.90 1.92 1.94 2.01 1.89 1.87 1.90 1.97 2.07 2.13 2.18 2.05 2.05 2.08 1.98 1.71 1.58 1.51 1.38 1.23 1.14 1.09 1.18 1.20 1.15 1.33 1.42 1.34 1.31 1.53 1.86 1.99 2.04 2.06
2.59 2.38 2.37 2.23 2.33 2.40 2.55 2.56 2.57 2.48 2.44 2.39 2.32 2.33 2.27 2.25 2.31 2.29 2.46 2.50 2.33 2.26 2.24 2.16 2.04 1.83 1.76 1.71 1.63 1.47 1.35 1.35 1.48 1.52 1.54 1.66 1.68 1.56 1.59 1.79 1.99 2.12 2.21
2.45 2.48 2.54 2.44 2.51 2.67 2.63 2.51 2.55 2.76 2.76 2.70 2.63 2.68 2.60 2.62 2.69 2.79 2.72 2.58 2.48 2.42 2.42 2.49 2.34 2.11 2.04 2.11 2.02 1.77 1.53 1.52 1.62 1.67 1.65 1.74 1.87 1.78 1.77 1.68 1.76 1.91 2.08
2.35 2.28 2.40 2.56 2.49 2.64 2.67 2.63 2.67 2.90 3.04 3.07 3.05 2.98 2.94 2.99 3.01 3.10 3.11 2.92 2.71 2.61 2.62 2.47 2.48 2.39 2.38 2.35 2.05 1.83 1.58 1.52 1.59 1.60 1.63 1.71 1.88 1.95 1.95 1.77 1.79 1.97 2.10
2.29 2.30 2.34 2.60 2.56 2.72 2.83 2.71 2.77 2.80 2.90 3.02 3.17 3.26 3.40 3.46 3.45 3.46 3.35 3.17 3.01 2.88 2.82 2.73 2.69 2.68 2.52 2.36 1.98 1.79 1.60 1.46 1.47 1.53 1.56 1.62 1.66 1.71 1.77 1.78 1.83 1.78 1.88
2.43 2.45 2.37 2.40 2.58 2.65 2.79 2.91 3.15 3.13 3.11 3.37 3.64 3.77 3.95 4.02 3.85 3.81 3.71 3.55 3.37 3.15 2.99 2.85 2.73 2.63 2.44 2.27 2.09 1.91 1.64 1.40 1.41 1.44 1.40 1.45 1.52 1.52 1.56 1.60 1.75 1.74 1.66
2.51 2.51 2.55 2.70 2.74 2.83 3.18 3.63 4.03 4.33 4.46 4.53 4.73 4.74 4.62 4.46 4.33 4.20 4.10 3.89 3.65 3.42 3.18 2.97 2.75 2.54 2.35 2.19 2.13 2.17 1.94 1.69 1.36 1.17 1.17 1.19 1.23 1.23 1.28 1.34 1.37 1.42 1.42
2.31 2.49 2.56 2.84 3.19 3.54 4.01 4.54 4.96 5.31 5.48 5.35 5.17 5.04 4.81 4.59 4.40 4.08 3.86 3.79 3.58 3.25 3.03 2.87 2.67 2.48 2.26 2.10 2.00 2.11 2.07 1.88 1.57 1.36 1.15 1.05 1.05 1.11 1.14 1.21 1.24 1.19 1.16
2.02 2.30 2.62 2.91 3.47 4.21 4.86 5.41 5.87 6.04 6.00 5.83 5.55 5.16 4.76 4.42 4.10 3.80 3.53 3.26 3.03 2.77 2.55 2.40 2.31 2.25 2.16 2.01 1.93 1.75 1.58 1.48 1.52 1.42 1.25 1.13 1.07 1.08 1.04 0.99 1.01 1.04 1.02
1.85 2.15 2.55 2.96 3.62 4.27 4.89 5.45 5.87 6.04 5.92 5.63 5.17 4.68 4.19 3.72 3.35 3.06 2.79 2.52 2.29 2.11 1.95 1.78 1.73 1.85 1.94 1.93 1.91 1.84 1.69 1.53 1.44 1.38 1.31 1.25 1.17 1.13 1.07 1.01 0.95 0.93 0.90
1.61 1.93 2.33 2.76 3.26 3.76 4.15 4.67 4.99 5.15 5.08 4.76 4.27 3.67 3.20 2.88 2.60 2.34 2.09 1.89 1.70 1.54 1.44 1.37 1.36 1.41 1.53 1.61 1.66 1.68 1.68 1.70 1.67 1.58 1.47 1.41 1.35 1.26 1.16 1.10 1.05 1.02 0.98

GEFSSE_prec_meanprecacc_174.txt.gz
Total_Precipitation_Accumulation
0.13 0.07 0.07 0.06 0.06 0.07 0.07 0.09 0.10 0.11 0.09 0.08 0.08 0.07 0.07 0.07 0.06 0.05 0.05 0.06 0.09 0.14 0.19 0.21 0.23 0.27 0.29 0.23 0.14 0.10 0.10 0.09 0.10 0.13 0.16 0.18 0.21 0.25 0.26 0.22 0.27 0.25 0.18
0.12 0.07 0.07 0.06 0.06 0.08 0.07 0.09 0.10 0.10 0.09 0.08 0.07 0.07 0.07 0.06 0.07 0.07 0.07 0.08 0.11 0.13 0.14 0.16 0.19 0.20 0.19 0.13 0.09 0.09 0.09 0.11 0.20 0.31 0.40 0.39 0.37 0.34 0.38 0.38 0.40 0.33 0.17
0.14 0.09 0.07 0.07 0.06 0.07 0.07 0.10 0.11 0.11 0.11 0.10 0.09 0.08 0.08 0.08 0.08 0.08 0.08 0.09 0.13 0.15 0.15 0.14 0.13 0.12 0.10 0.09 0.08 0.10 0.15 0.20 0.36 0.57 0.88 1.04 0.79 0.61 0.48 0.42 0.37 0.26 0.22
0.15 0.12 0.09 0.07 0.07 0.06 0.06 0.08 0.11 0.11 0.10 0.10 0.09 0.08 0.08 0.08 0.08 0.10 0.11 0.12 0.17 0.20 0.18 0.14 0.11 0.08 0.07 0.07 0.08 0.12 0.18 0.28 0.50 0.79 1.44 1.42 1.30 1.06 0.61 0.43 0.35 0.33 0.38
0.13 0.12 0.12 0.10 0.08 0.07 0.07 0.08 0.11 0.11 0.10 0.10 0.10 0.10 0.10 0.10 0.10 0.12 0.16 0.20 0.21 0.21 0.22 0.19 0.14 0.10 0.07 0.07 0.09 0.14 0.22 0.34 0.66 1.02 1.47 1.80 1.97 1.36 0.81 0.57 0.47 0.44 0.50
0.12 0.11 0.10 0.11 0.11 0.10 0.10 0.11 0.12 0.13 0.12 0.13 0.13 0.13 0.13 0.13 0.14 0.17 0.25 0.31 0.29 0.26 0.28 0.27 0.22 0.16 0.09 0.08 0.11 0.17 0.27 0.44 0.66 1.00 1.49 2.12 1.94 1.37 0.95 0.72 0.61 0.56 0.60
0.16 0.16 0.12 0.14 0.16 0.15 0.15 0.14 0.17 0.17 0.19 0.21 0.20 0.18 0.18 0.18 0.19 0.25 0.32 0.34 0.33 0.32 0.31 0.27 0.20 0.13 0.11 0.12 0.14 0.19 0.32 0.49 0.66 1.16 1.61 1.96 1.73 1.27 1.00 0.78 0.68 0.64 0.64
0.20 0.17 0.14 0.16 0.20 0.21 0.22 0.23 0.23 0.24 0.24 0.24 0.23 0.23 0.21 0.20 0.23 0.29 0.33 0.35 0.35 0.31 0.26 0.21 0.18 0.16 0.16 0.17 0.18 0.24 0.34 0.40 0.51 1.03 1.47 1.61 1.31 1.15 1.04 0.81 0.68 0.62 0.58
0.29 0.29 0.28 0.29 0.27 0.29 0.32 0.33 0.32 0.31 0.30 0.28 0.26 0.23 0.21 0.23 0.27 0.31 0.37 0.41 0.39 0.30 0.24 0.22 0.19 0.17 0.16 0.17 0.17 0.21 0.27 0.38 0.48 0.82 1.36 1.63 1.15 1.11 1.11 0.91 0.73 0.62 0.56
0.61 0.62 0.61 0.58 0.51 0.44 0.40 0.41 0.42 0.41 0.39 0.34 0.29 0.25 0.26 0.30 0.35 0.41 0.38 0.41 0.38 0.32 0.27 0.24 0.21 0.18 0.18 0.17 0.18 0.20 0.26 0.31 0.38 0.75 1.23 1.34 1.20 1.35 1.38 1.13 0.84 0.68 0.58
1.14 1.13 0.99 0.87 0.75 0.77 0.72 0.54 0.55 0.53 0.50 0.44 0.40 0.35 0.38 0.48 0.59 0.65 0.56 0.58 0.50 0.42 0.37 0.36 0.31 0.28 0.25 0.24 0.25 0.27 0.30 0.33 0.54 0.87 1.44 1.50 1.58 1.60 1.62 1.39 1.07 0.87 0.75
1.50 1.37 1.18 1.18 1.13 1.06 0.93 0.84 0.83 0.72 0.69 0.62 0.71 0.61 0.68 0.96 1.07 0.96 0.93 0.77 0.71 0.64 0.57 0.56 0.51 0.43 0.37 0.38 0.43 0.43 0.35 0.41 0.60 0.90 1.22 1.40 1.55 1.69 1.70 1.50 1.23 1.04 1.00
1.58 1.37 1.34 1.45 1.40 1.42 1.39 1.33 1.21 1.15 1.10 0.98 1.07 1.04 1.10 1.11 1.08 1.12 1.18 1.05 0.97 0.92 0.94 0.95 0.74 0.64 0.66 0.70 0.68 0.60 0.52 0.57 0.65 0.85 1.13 1.29 1.42 1.71 1.82 1.62 1.39 1.28 1.19
1.93 1.68 1.54 1.42 1.50 1.68 1.65 1.61 1.60 1.57 1.55 1.47 1.44 1.30 1.39 1.45 1.49 1.46 1.54 1.53 1.55 1.50 1.45 1.36 1.21 1.08 1.00 1.01 0.99 0.95 0.80 0.77 0.91 1.09 1.25 1.23 1.29 1.58 1.81 1.78 1.57 1.45 1.32
2.38 2.16 1.87 1.79 1.77 1.79 1.87 1.88 1.64 1.70 1.76 1.89 1.85 1.65 1.67 1.66 1.72 1.89 1.92 2.02 1.94 2.06 1.97 1.78 1.54 1.45 1.35 1.16 1.12 1.15 1.09 1.04 1.09 1.18 1.36 1.41 1.35 1.50 1.78 1.92 1.78 1.64 1.59
2.53 2.42 2.20 2.02 1.97 1.87 2.05 2.22 2.08 1.91 1.93 1.96 2.04 1.92 1.92 1.97 2.06 2.15 2.20 2.27 2.15 2.13 2.15 2.04 1.79 1.65 1.57 1.43 1.28 1.19 1.15 1.24 1.27 1.23 1.41 1.50 1.42 1.39 1.62 1.95 2.08 2.13 2.14
2.65 2.42 2.40 2.25 2.35 2.41 2.56 2.58 2.58 2.49 2.47 2.41 2.35 2.37 2.31 2.33 2.40 2.40 2.57 2.60 2.45 2.39 2.37 2.29 2.15 1.90 1.83 1.78 1.70 1.52 1.40 1.39 1.54 1.59 1.59 1.71 1.75 1.63 1.67 1.87 2.07 2.21 2.30
2.53 2.53 2.57 2.47 2.54 2.70 2.65 2.54 2.57 2.78 2.79 2.73 2.67 2.72 2.63 2.66 2.74 2.87 2.82 2.67 2.56 2.51 2.52 2.61 2.47 2.22 2.14 2.19 2.10 1.82 1.57 1.56 1.66 1.73 1.72 1.80 1.94 1.86 1.83 1.76 1.83 1.99 2.16
2.45 2.34 2.46 2.62 2.54 2.68 2.71 2.67 2.71 2.94 3.07 3.10 3.09 3.01 2.97 3.02 3.05 3.19 3.17 2.96 2.75 2.67 2.69 2.54 2.55 2.47 2.50 2.45 2.11 1.88 1.64 1.58 1.65 1.68 1.72 1.79 1.96 2.04 2.03 1.85 1.86 2.05 2.18
2.43 2.41 2.41 2.66 2.62 2.76 2.87 2.76 2.82 2.85 2.95 3.07 3.21 3.30 3.43 3.48 3.47 3.50 3.40 3.22 3.06 2.94 2.90 2.79 2.75 2.72 2.57 2.44 2.05 1.85 1.67 1.54 1.55 1.61 1.64 1.69 1.74 1.79 1.86 1.88 1.91 1.84 1.95
2.60 2.58 2.45 2.48 2.66 2.71 2.84 2.96 3.21 3.19 3.17 3.43 3.69 3.81 3.98 4.04 3.87 3.83 3.75 3.60 3.42 3.21 3.06 2.91 2.78 2.65 2.47 2.30 2.14 1.95 1.69 1.47 1.49 1.51 1.47 1.51 1.58 1.58 1.62 1.68 1.83 1.79 1.70
2.71 2.66 2.64 2.77 2.81 2.90 3.23 3.68 4.09 4.40 4.56 4.62 4.80 4.80 4.67 4.50 4.36 4.22 4.13 3.92 3.67 3.44 3.21 3.01 2.77 2.56 2.37 2.21 2.17 2.22 1.99 1.73 1.40 1.21 1.21 1.24 1.28 1.28 1.34 1.42 1.45 1.48 1.48
2.49 2.64 2.67 2.92 3.25 3.60 4.07 4.60 5.02 5.37 5.54 5.40 5.21 5.09 4.87 4.64 4.43 4.11 3.89 3.81 3.60 3.27 3.05 2.88 2.69 2.51 2.29 2.14 2.05 2.18 2.14 1.94 1.60 1.39 1.19 1.09 1.09 1.16 1.21 1.29 1.33 1.28 1.23
2.20 2.47 2.74 2.99 3.54 4.27 4.91 5.47 5.93 6.09 6.06 5.89 5.61 5.22 4.80 4.44 4.12 3.83 3.55 3.28 3.04 2.79 2.56 2.41 2.33 2.27 2.19 2.06 2.00 1.83 1.65 1.54 1.57 1.46 1.28 1.17 1.12 1.13 1.10 1.06 1.10 1.13 1.11
1.97 2.28 2.65 3.04 3.68 4.33 4.94 5.50 5.91 6.09 5.98 5.69 5.23 4.73 4.23 3.75 3.38 3.08 2.81 2.54 2.30 2.12 1.96 1.79 1.74 1.86 1.96 1.95 1.94 1.90 1.74 1.57 1.50 1.43 1.36 1.29 1.23 1.18 1.11 1.06 1.01 1.00 0.98
1.69 2.00 2.40 2.82 3.31 3.80 4.19 4.71 5.02 5.19 5.12 4.80 4.31 3.71 3.25 2.93 2.63 2.36 2.12 1.92 1.73 1.56 1.45 1.39 1.37 1.43 1.55 1.63 1.67 1.71 1.72 1.76 1.73 1.64 1.54 1.48 1.43 1.32 1.20 1.14 1.09 1.07 1.02

GEFSSE_prec_meanprecacc_180.txt.gz
Total_Precipitation_Accumulation
0.14 0.08 0.09 0.08 0.07 0.07 0.07 0.09 0.10 0.11 0.09 0.08 0.08 0.07 0.07 0.07 0.07 0.06 0.05 0.06 0.09 0.14 0.19 0.21 0.23 0.27 0.30 0.23 0.15 0.11 0.11 0.10 0.11 0.13 0.17 0.21 0.24 0.28 0.31 0.27 0.30 0.26 0.20
0.13 0.07 0.09 0.07 0.07 0.08 0.07 0.09 0.10 0.10 0.09 0.08 0.07 0.07 0.07 0.07 0.07 0.08 0.07 0.08 0.11 0.14 0.15 0.16 0.19 0.20 0.19 0.14 0.10 0.09 0.10 0.12 0.21 0.32 0.41 0.41 0.41 0.39 0.44 0.45 0.46 0.35 0.19
0.14 0.10 0.08 0.08 0.07 0.07 0.07 0.10 0.11 0.11 0.11 0.10 0.09 0.08 0.08 0.08 0.08 0.08 0.08 0.09 0.13 0.16 0.15 0.14 0.13 0.13 0.11 0.09 0.09 0.11 0.16 0.22 0.40 0.60 0.92 1.06 0.82 0.66 0.57 0.52 0.44 0.31 0.25
0.16 0.13 0.09 0.08 0.07 0.07 0.07 0.09 0.11 0.11 0.10 0.10 0.09 0.08 0.08 0.08 0.09 0.10 0.11 0.13 0.17 0.20 0.19 0.15 0.12 0.09 0.08 0.08 0.09 0.13 0.20 0.29 0.53 0.84 1.48 1.45 1.34 1.12 0.68 0.49 0.40 0.38 0.42
0.14 0.13 0.12 0.10 0.08 0.08 0.07 0.08 0.11 0.11 0.10 0.10 0.10 0.10 0.10 0.10 0.10 0.12 0.17 0.20 0.21 0.22 0.23 0.20 0.15 0.11 0.08 0.08 0.10 0.15 0.23 0.36 0.69 1.05 1.50 1.83 2.00 1.41 0.89 0.63 0.51 0.48 0.54
0.13 0.11 0.10 0.11 0.11 0.10 0.10 0.11 0.12 0.13 0.12 0.13 0.13 0.13 0.13 0.13 0.14 0.17 0.25 0.31 0.29 0.26 0.29 0.27 0.23 0.16 0.11 0.09 0.12 0.18 0.30 0.47 0.69 1.01 1.51 2.14 1.96 1.42 1.05 0.82 0.67 0.61 0.64
0.17 0.17 0.13 0.14 0.16 0.15 0.15 0.15 0.17 0.17 0.19 0.21 0.20 0.18 0.18 0.18 0.19 0.25 0.32 0.35 0.33 0.32 0.32 0.28 0.21 0.14 0.12 0.13 0.14 0.20 0.34 0.51 0.67 1.17 1.63 1.98 1.75 1.32 1.11 0.90 0.80 0.73 0.69
0.22 0.18 0.15 0.17 0.20 0.22 0.23 0.24 0.23 0.24 0.24 0.25 0.24 0.24 0.21 0.20 0.23 0.29 0.34 0.36 0.36 0.32 0.27 0.22 0.19 0.16 0.17 0.18 0.19 0.25 0.35 0.41 0.52 1.04 1.48 1.62 1.33 1.20 1.16 0.94 0.80 0.71 0.65
0.30 0.30 0.29 0.30 0.29 0.31 0.34 0.35 0.34 0.33 0.31 0.28 0.26 0.24 0.22 0.23 0.28 0.32 0.38 0.42 0.40 0.31 0.25 0.23 0.21 0.18 0.18 0.18 0.19 0.23 0.29 0.41 0.50 0.83 1.37 1.64 1.17 1.17 1.22 1.04 0.85 0.73 0.65
0.64 0.64 0.63 0.59 0.53 0.45 0.41 0.42 0.43 0.42 0.40 0.35 0.29 0.25 0.27 0.31 0.36 0.42 0.40 0.42 0.40 0.34 0.30 0.28 0.24 0.20 0.20 0.20 0.20 0.23 0.29 0.34 0.40 0.76 1.24 1.35 1.22 1.41 1.49 1.26 0.95 0.79 0.68
1.18 1.15 1.00 0.88 0.76 0.78 0.72 0.54 0.55 0.54 0.51 0.45 0.41 0.36 0.39 0.48 0.59 0.66 0.57 0.59 0.52 0.44 0.40 0.40 0.35 0.32 0.29 0.26 0.28 0.31 0.33 0.35 0.56 0.89 1.45 1.52 1.62 1.69 1.73 1.52 1.20 0.99 0.85
1.54 1.39 1.19 1.18 1.14 1.07 0.94 0.86 0.84 0.73 0.69 0.63 0.71 0.61 0.68 0.97 1.08 0.97 0.94 0.80 0.74 0.67 0.60 0.60 0.55 0.46 0.40 0.40 0.46 0.45 0.37 0.43 0.62 0.92 1.25 1.45 1.62 1.79 1.82 1.62 1.35 1.16 1.12
1.62 1.39 1.34 1.45 1.41 1.43 1.41 1.34 1.22 1.15 1.10 0.98 1.07 1.04 1.11 1.12 1.08 1.13 1.18 1.06 0.99 0.94 0.96 0.97 0.77 0.66 0.67 0.71 0.70 0.62 0.54 0.59 0.67 0.88 1.17 1.35 1.51 1.84 1.96 1.74 1.50 1.38 1.30
1.95 1.69 1.54 1.43 1.52 1.69 1.66 1.62 1.60 1.57 1.56 1.47 1.44 1.31 1.40 1.46 1.50 1.47 1.54 1.54 1.57 1.51 1.46 1.37 1.23 1.10 1.03 1.02 1.01 0.97 0.83 0.80 0.93 1.12 1.28 1.28 1.38 1.70 1.95 1.93 1.70 1.56 1.43
2.40 2.18 1.89 1.81 1.79 1.80 1.87 1.89 1.65 1.70 1.76 1.89 1.85 1.65 1.67 1.67 1.73 1.90 1.93 2.03 1.96 2.08 1.99 1.80 1.57 1.47 1.38 1.18 1.14 1.17 1.11 1.07 1.12 1.21 1.40 1.47 1.43 1.60 1.90 2.07 1.94 1.79 1.75
2.57 2.45 2.23 2.05 2.01 1.90 2.07 2.23 2.09 1.93 1.95 1.97 2.05 1.93 1.94 1.99 2.07 2.16 2.22 2.29 2.16 2.16 2.18 2.07 1.82 1.68 1.59 1.44 1.29 1.20 1.16 1.27 1.30 1.26 1.44 1.55 1.49 1.47 1.72 2.08 2.22 2.28 2.32
2.71 2.48 2.46 2.31 2.41 2.46 2.60 2.61 2.61 2.53 2.51 2.45 2.40 2.41 2.35 2.35 2.42 2.41 2.58 2.61 2.47 2.42 2.39 2.32 2.19 1.94 1.85 1.80 1.71 1.55 1.42 1.42 1.56 1.62 1.63 1.74 1.79 1.69 1.76 1.98 2.20 2.35 2.48
2.65 2.65 2.67 2.56 2.63 2.77 2.71 2.60 2.64 2.85 2.86 2.80 2.75 2.79 2.70 2.71 2.77 2.90 2.85 2.70 2.58 2.53 2.54 2.65 2.51 2.25 2.17 2.21 2.11 1.84 1.58 1.58 1.68 1.76 1.75 1.83 1.97 1.90 1.89 1.85 1.93 2.10 2.30
2.61 2.51 2.59 2.72 2.63 2.77 2.80 2.76 2.81 3.03 3.16 3.20 3.19 3.08 3.03 3.07 3.08 3.22 3.19 2.98 2.77 2.69 2.71 2.58 2.59 2.50 2.53 2.49 2.14 1.90 1.65 1.60 1.67 1.70 1.75 1.83 2.00 2.08 2.09 1.92 1.97 2.17 2.32
2.57 2.57 2.56 2.79 2.75 2.89 2.99 2.86 2.92 2.95 3.04 3.17 3.30 3.35 3.47 3.51 3.50 3.52 3.43 3.26 3.10 2.97 2.91 2.81 2.76 2.73 2.60 2.47 2.08 1.87 1.68 1.55 1.56 1.63 1.68 1.74 1.79 1.84 1.92 1.95 1.99 1.95 2.08
2.72 2.71 2.60 2.66 2.86 2.89 2.99 3.11 3.34 3.29 3.25 3.49 3.74 3.85 4.02 4.09 3.92 3.88 3.79 3.64 3.46 3.24 3.08 2.92 2.79 2.66 2.48 2.32 2.17 1.98 1.70 1.49 1.50 1.53 1.49 1.55 1.63 1.63 1.67 1.73 1.88 1.85 1.78
2.86 2.82 2.83 2.99 3.01 3.08 3.38 3.82 4.21 4.49 4.61 4.66 4.83 4.82 4.70 4.54 4.42 4.29 4.20 3.98 3.72 3.48 3.24 3.02 2.78 2.57 2.38 2.23 2.19 2.26 2.02 1.75 1.42 1.23 1.24 1.27 1.31 1.32 1.38 1.47 1.51 1.55 1.54
2.64 2.82 2.88 3.17 3.48 3.80 4.23 4.71 5.10 5.44 5.61 5.45 5.24 5.12 4.91 4.68 4.50 4.17 3.95 3.87 3.65 3.31 3.08 2.91 2.70 2.52 2.30 2.15 2.06 2.21 2.17 1.96 1.62 1.42 1.22 1.12 1.13 1.21 1.25 1.34 1.38 1.32 1.26
2.34 2.66 2.94 3.21 3.74 4.46 5.07 5.58 6.01 6.16 6.11 5.94 5.65 5.26 4.83 4.47 4.15 3.87 3.61 3.33 3.10 2.83 2.59 2.44 2.34 2.28 2.20 2.08 2.02 1.86 1.68 1.56 1.60 1.50 1.34 1.23 1.18 1.19 1.16 1.12 1.14 1.16 1.14
2.14 2.45 2.80 3.16 3.79 4.44 5.05 5.60 5.99 6.15 6.03 5.73 5.27 4.77 4.27 3.80 3.42 3.12 2.87 2.59 2.34 2.15 1.98 1.80 1.75 1.87 1.98 1.98 1.97 1.93 1.77 1.60 1.52 1.48 1.43 1.38 1.34 1.29 1.18 1.11 1.06 1.04 1.00
1.78 2.09 2.50 2.94 3.43 3.91 4.28 4.78 5.08 5.24 5.17 4.83 4.34 3.73 3.28 2.95 2.65 2.38 2.13 1.93 1.74 1.56 1.46 1.39 1.38 1.44 1.57 1.67 1.71 1.74 1.75 1.80 1.77 1.69 1.60 1.56 1.53 1.43 1.28 1.19 1.14 1.11 1.07

GEFSSE_prec_meanprecacc_186.txt.gz
Total_Precipitation_Accumulation
0.14 0.08 0.10 0.09 0.08 0.08 0.07 0.09 0.11 0.11 0.10 0.09 0.09 0.08 0.08 0.07 0.07 0.06 0.05 0.07 0.09 0.14 0.19 0.22 0.24 0.27 0.30 0.23 0.15 0.11 0.11 0.10 0.11 0.14 0.17 0.21 0.24 0.29 0.32 0.29 0.32 0.28 0.22
0.13 0.08 0.10 0.09 0.09 0.09 0.08 0.09 0.10 0.11 0.09 0.08 0.08 0.07 0.07 0.07 0.08 0.08 0.08 0.08 0.11 0.14 0.15 0.17 0.20 0.21 0.19 0.14 0.10 0.10 0.10 0.12 0.21 0.33 0.41 0.42 0.42 0.40 0.46 0.47 0.49 0.40 0.21
0.15 0.11 0.09 0.09 0.09 0.08 0.08 0.10 0.12 0.12 0.11 0.10 0.09 0.08 0.08 0.08 0.09 0.09 0.09 0.10 0.14 0.17 0.16 0.14 0.14 0.13 0.11 0.10 0.09 0.11 0.16 0.22 0.40 0.61 0.93 1.09 0.84 0.68 0.59 0.55 0.48 0.35 0.29
0.17 0.14 0.11 0.10 0.09 0.08 0.08 0.09 0.12 0.11 0.11 0.10 0.09 0.08 0.08 0.08 0.09 0.10 0.11 0.13 0.18 0.21 0.20 0.15 0.12 0.10 0.09 0.08 0.09 0.14 0.20 0.30 0.54 0.85 1.49 1.46 1.35 1.13 0.70 0.52 0.43 0.41 0.46
0.15 0.14 0.15 0.13 0.11 0.10 0.09 0.10 0.11 0.12 0.11 0.11 0.11 0.11 0.11 0.10 0.10 0.13 0.17 0.20 0.22 0.23 0.24 0.21 0.16 0.12 0.09 0.09 0.11 0.16 0.24 0.37 0.70 1.06 1.52 1.86 2.04 1.45 0.92 0.67 0.55 0.51 0.58
0.16 0.15 0.14 0.15 0.14 0.14 0.13 0.13 0.14 0.14 0.13 0.14 0.14 0.14 0.14 0.14 0.14 0.18 0.26 0.32 0.30 0.28 0.30 0.29 0.24 0.18 0.12 0.11 0.13 0.19 0.30 0.48 0.70 1.03 1.53 2.17 2.01 1.46 1.10 0.88 0.72 0.65 0.67
0.20 0.21 0.18 0.20 0.21 0.19 0.19 0.17 0.19 0.18 0.20 0.22 0.21 0.20 0.19 0.19 0.20 0.26 0.33 0.36 0.35 0.34 0.34 0.29 0.22 0.15 0.13 0.14 0.16 0.21 0.34 0.52 0.68 1.19 1.64 2.00 1.78 1.36 1.18 0.99 0.88 0.79 0.73
0.26 0.22 0.21 0.23 0.25 0.26 0.27 0.27 0.26 0.26 0.26 0.26 0.26 0.25 0.23 0.22 0.25 0.31 0.36 0.38 0.37 0.34 0.28 0.24 0.21 0.18 0.18 0.19 0.20 0.26 0.36 0.42 0.53 1.05 1.49 1.63 1.34 1.23 1.23 1.05 0.92 0.82 0.73
0.34 0.33 0.32 0.34 0.34 0.35 0.38 0.37 0.35 0.34 0.33 0.30 0.28 0.25 0.23 0.24 0.29 0.34 0.39 0.44 0.42 0.33 0.27 0.25 0.24 0.21 0.21 0.21 0.21 0.25 0.31 0.43 0.52 0.85 1.38 1.67 1.19 1.20 1.30 1.16 0.97 0.86 0.77
0.67 0.68 0.67 0.64 0.57 0.48 0.43 0.43 0.44 0.44 0.40 0.36 0.30 0.26 0.27 0.32 0.37 0.43 0.41 0.43 0.41 0.36 0.32 0.30 0.26 0.23 0.22 0.22 0.23 0.26 0.32 0.36 0.42 0.78 1.27 1.37 1.24 1.44 1.56 1.36 1.08 0.95 0.81
1.20 1.18 1.03 0.91 0.78 0.80 0.73 0.55 0.56 0.54 0.52 0.46 0.42 0.37 0.40 0.50 0.61 0.67 0.58 0.60 0.53 0.47 0.43 0.42 0.38 0.35 0.31 0.29 0.31 0.33 0.35 0.37 0.58 0.91 1.48 1.54 1.65 1.73 1.81 1.62 1.32 1.14 1.00
1.56 1.41 1.21 1.21 1.16 1.08 0.95 0.88 0.86 0.74 0.70 0.63 0.71 0.62 0.70 0.99 1.10 0.99 0.95 0.81 0.76 0.70 0.63 0.62 0.58 0.48 0.42 0.44 0.50 0.49 0.40 0.46 0.65 0.94 1.27 1.48 1.65 1.85 1.89 1.69 1.44 1.27 1.25
1.65 1.42 1.38 1.48 1.43 1.45 1.43 1.36 1.23 1.17 1.11 0.98 1.08 1.05 1.14 1.14 1.10 1.14 1.21 1.09 1.02 0.97 0.99 1.00 0.80 0.67 0.70 0.75 0.73 0.66 0.57 0.62 0.71 0.91 1.19 1.38 1.54 1.89 2.02 1.81 1.57 1.47 1.44
1.97 1.71 1.56 1.45 1.54 1.71 1.68 1.63 1.62 1.58 1.56 1.48 1.45 1.32 1.42 1.48 1.52 1.49 1.58 1.58 1.61 1.56 1.51 1.42 1.27 1.13 1.05 1.04 1.02 0.99 0.84 0.82 0.95 1.15 1.31 1.30 1.41 1.75 2.00 2.00 1.79 1.65 1.56
2.42 2.19 1.90 1.83 1.80 1.82 1.89 1.90 1.66 1.72 1.78 1.91 1.88 1.67 1.70 1.71 1.77 1.94 1.96 2.07 2.00 2.12 2.04 1.84 1.60 1.50 1.41 1.20 1.15 1.18 1.13 1.09 1.14 1.24 1.43 1.49 1.47 1.65 1.95 2.13 2.04 1.91 1.89
2.59 2.46 2.24 2.07 2.03 1.92 2.09 2.26 2.11 1.95 1.97 1.99 2.07 1.96 1.97 2.03 2.13 2.21 2.25 2.32 2.20 2.20 2.22 2.11 1.84 1.70 1.60 1.46 1.30 1.21 1.18 1.30 1.32 1.28 1.47 1.57 1.52 1.51 1.77 2.13 2.31 2.41 2.46
2.74 2.50 2.49 2.33 2.44 2.48 2.62 2.64 2.64 2.55 2.53 2.48 2.42 2.44 2.38 2.40 2.46 2.46 2.62 2.65 2.51 2.45 2.42 2.35 2.21 1.96 1.86 1.81 1.72 1.56 1.45 1.45 1.58 1.64 1.65 1.76 1.81 1.72 1.79 2.04 2.28 2.46 2.61
2.69 2.69 2.73 2.60 2.66 2.80 2.75 2.64 2.68 2.88 2.89 2.83 2.78 2.84 2.74 2.74 2.80 2.93 2.88 2.73 2.62 2.56 2.56 2.67 2.53 2.28 2.19 2.22 2.13 1.85 1.59 1.60 1.71 1.78 1.76 1.84 1.99 1.93 1.92 1.89 1.99 2.18 2.40
2.64 2.57 2.66 2.78 2.69 2.83 2.87 2.83 2.87 3.10 3.23 3.26 3.24 3.13 3.07 3.11 3.12 3.27 3.23 3.02 2.81 2.72 2.74 2.60 2.61 2.53 2.56 2.51 2.15 1.91 1.67 1.62 1.69 1.72 1.76 1.83 2.01 2.10 2.11 1.94 2.00 2.22 2.38
2.60 2.62 2.63 2.86 2.82 2.97 3.07 2.95 3.01 3.04 3.15 3.29 3.40 3.44 3.53 3.57 3.55 3.58 3.47 3.30 3.13 2.99 2.94 2.83 2.78 2.76 2.63 2.50 2.10 1.90 1.72 1.59 1.60 1.65 1.69 1.75 1.81 1.85 1.93 1.97 2.02 1.99 2.13
2.76 2.76 2.66 2.72 2.92 2.96 3.08 3.20 3.44 3.40 3.36 3.61 3.85 3.95 4.10 4.14 3.97 3.93 3.83 3.67 3.48 3.26 3.10 2.95 2.81 2.69 2.50 2.35 2.19 2.00 1.73 1.51 1.54 1.57 1.52 1.57 1.65 1.64 1.68 1.75 1.91 1.89 1.82
2.90 2.88 2.89 3.05 3.09 3.18 3.48 3.94 4.34 4.61 4.71 4.76 4.92 4.90 4.77 4.60 4.47 4.34 4.23 4.01 3.74 3.50 3.27 3.05 2.81 2.59 2.41 2.26 2.22 2.28 2.04 1.77 1.44 1.26 1.27 1.30 1.34 1.34 1.41 1.49 1.53 1.58 1.59
2.70 2.87 2.93 3.24 3.57 3.90 4.35 4.84 5.21 5.53 5.68 5.50 5.30 5.18 4.95 4.73 4.54 4.20 3.97 3.90 3.68 3.33 3.11 2.94 2.74 2.55 2.34 2.19 2.10 2.25 2.20 1.99 1.65 1.44 1.25 1.14 1.16 1.24 1.29 1.37 1.40 1.35 1.31
2.41 2.70 2.98 3.26 3.82 4.55 5.17 5.66 6.09 6.22 6.16 5.97 5.69 5.30 4.86 4.50 4.19 3.90 3.62 3.35 3.12 2.86 2.63 2.49 2.40 2.36 2.27 2.13 2.06 1.90 1.72 1.60 1.64 1.53 1.37 1.27 1.22 1.23 1.20 1.15 1.18 1.19 1.18
2.18 2.48 2.83 3.19 3.84 4.50 5.10 5.66 6.05 6.21 6.08 5.78 5.32 4.80 4.30 3.83 3.44 3.15 2.89 2.60 2.36 2.18 2.02 1.88 1.86 1.98 2.06 2.03 2.01 1.97 1.81 1.64 1.57 1.53 1.47 1.43 1.41 1.37 1.27 1.17 1.12 1.08 1.05
1.80 2.12 2.54 2.97 3.46 3.96 4.33 4.83 5.13 5.30 5.23 4.89 4.39 3.77 3.31 2.98 2.68 2.40 2.15 1.94 1.75 1.58 1.48 1.41 1.41 1.47 1.60 1.70 1.75 1.79 1.79 1.84 1.82 1.75 1.67 1.62 1.60 1.53 1.40 1.30 1.21 1.17 1.12

GEFSSE_prec_meanprecacc_192.txt.gz
Total_Precipitation_Accumulation
0.14 0.08 0.10 0.09 0.08 0.09 0.08 0.10 0.11 0.13 0.11 0.10 0.10 0.09 0.08 0.08 0.07 0.06 0.06 0.07 0.09 0.14 0.19 0.22 0.24 0.27 0.30 0.23 0.15 0.11 0.11 0.10 0.11 0.14 0.17 0.21 0.24 0.29 0.32 0.29 0.33 0.34 0.26
0.14 0.08 0.10 0.09 0.10 0.10 0.08 0.09 0.11 0.12 0.10 0.09 0.08 0.08 0.08 0.08 0.09 0.08 0.08 0.08 0.11 0.14 0.15 0.17 0.20 0.21 0.20 0.14 0.10 0.10 0.10 0.13 0.21 0.33 0.41 0.43 0.42 0.41 0.46 0.48 0.51 0.48 0.27
0.17 0.13 0.10 0.10 0.09 0.09 0.08 0.11 0.12 0.12 0.12 0.11 0.10 0.08 0.09 0.09 0.09 0.09 0.09 0.10 0.14 0.17 0.16 0.15 0.14 0.13 0.12 0.10 0.10 0.12 0.16 0.22 0.41 0.61 0.94 1.13 0.88 0.70 0.61 0.56 0.49 0.37 0.32
0.19 0.17 0.13 0.11 0.11 0.09 0.09 0.11 0.13 0.13 0.11 0.10 0.09 0.09 0.09 0.09 0.09 0.10 0.11 0.13 0.18 0.21 0.20 0.16 0.13 0.10 0.09 0.09 0.10 0.14 0.21 0.31 0.54 0.86 1.52 1.52 1.42 1.24 0.74 0.54 0.45 0.42 0.47
0.18 0.16 0.16 0.14 0.12 0.12 0.11 0.13 0.14 0.14 0.12 0.11 0.11 0.11 0.11 0.11 0.11 0.13 0.17 0.21 0.22 0.23 0.24 0.22 0.16 0.12 0.10 0.09 0.11 0.17 0.24 0.38 0.71 1.07 1.55 1.91 2.14 1.57 0.98 0.70 0.57 0.53 0.59
0.19 0.16 0.15 0.16 0.16 0.16 0.16 0.17 0.18 0.17 0.15 0.15 0.14 0.14 0.14 0.14 0.14 0.18 0.26 0.32 0.30 0.28 0.30 0.29 0.25 0.18 0.12 0.11 0.13 0.19 0.31 0.48 0.70 1.04 1.56 2.21 2.07 1.55 1.15 0.91 0.74 0.67 0.70
0.24 0.24 0.19 0.21 0.23 0.22 0.22 0.21 0.22 0.20 0.22 0.23 0.22 0.20 0.20 0.19 0.21 0.26 0.34 0.37 0.36 0.34 0.35 0.30 0.23 0.16 0.13 0.14 0.16 0.21 0.35 0.53 0.69 1.21 1.70 2.05 1.83 1.42 1.23 1.03 0.93 0.85 0.78
0.27 0.24 0.22 0.24 0.27 0.28 0.28 0.29 0.28 0.28 0.28 0.28 0.27 0.27 0.24 0.24 0.27 0.32 0.36 0.38 0.38 0.34 0.29 0.25 0.22 0.19 0.19 0.19 0.21 0.26 0.36 0.43 0.54 1.06 1.53 1.68 1.39 1.27 1.28 1.10 0.99 0.89 0.81
0.36 0.36 0.36 0.37 0.37 0.40 0.42 0.41 0.38 0.36 0.35 0.32 0.29 0.26 0.23 0.25 0.30 0.34 0.39 0.44 0.42 0.33 0.28 0.26 0.24 0.22 0.21 0.21 0.22 0.25 0.31 0.43 0.52 0.85 1.40 1.71 1.23 1.25 1.35 1.21 1.03 0.93 0.85
0.70 0.71 0.71 0.69 0.62 0.52 0.46 0.44 0.46 0.45 0.41 0.37 0.30 0.26 0.28 0.32 0.38 0.45 0.42 0.44 0.41 0.36 0.32 0.30 0.27 0.23 0.22 0.22 0.23 0.26 0.32 0.36 0.42 0.79 1.30 1.40 1.28 1.49 1.60 1.41 1.15 1.03 0.89
1.24 1.21 1.07 0.95 0.83 0.84 0.75 0.56 0.57 0.55 0.52 0.46 0.43 0.38 0.41 0.53 0.68 0.74 0.61 0.61 0.54 0.48 0.44 0.43 0.39 0.35 0.32 0.29 0.31 0.35 0.37 0.38 0.58 0.93 1.50 1.58 1.69 1.77 1.84 1.67 1.38 1.19 1.07
1.59 1.43 1.24 1.24 1.20 1.11 0.98 0.91 0.89 0.76 0.73 0.66 0.76 0.67 0.76 1.07 1.18 1.03 0.99 0.83 0.78 0.71 0.64 0.64 0.60 0.50 0.44 0.47 0.55 0.53 0.41 0.46 0.65 0.97 1.31 1.52 1.68 1.87 1.92 1.73 1.49 1.31 1.30
1.68 1.44 1.40 1.50 1.46 1.49 1.48 1.42 1.27 1.22 1.16 1.03 1.13 1.12 1.20 1.21 1.16 1.19 1.28 1.16 1.07 1.02 1.06 1.07 0.85 0.71 0.74 0.81 0.80 0.71 0.59 0.64 0.73 0.94 1.23 1.41 1.57 1.91 2.04 1.83 1.61 1.51 1.49
2.00 1.73 1.58 1.47 1.57 1.75 1.71 1.67 1.66 1.62 1.61 1.53 1.50 1.36 1.48 1.54 1.57 1.56 1.66 1.66 1.68 1.65 1.62 1.52 1.35 1.19 1.11 1.10 1.05 1.02 0.88 0.85 0.99 1.19 1.35 1.33 1.43 1.77 2.02 2.02 1.82 1.68 1.60
2.44 2.22 1.93 1.86 1.85 1.86 1.92 1.94 1.70 1.76 1.82 1.95 1.93 1.72 1.75 1.77 1.84 2.01 2.03 2.14 2.08 2.22 2.16 1.94 1.67 1.56 1.46 1.25 1.18 1.20 1.15 1.12 1.17 1.28 1.47 1.52 1.49 1.67 1.97 2.16 2.07 1.95 1.93
2.62 2.49 2.28 2.10 2.06 1.95 2.12 2.29 2.16 1.98 2.01 2.03 2.12 2.01 2.02 2.09 2.19 2.28 2.33 2.40 2.28 2.29 2.32 2.20 1.92 1.77 1.67 1.51 1.34 1.24 1.19 1.31 1.33 1.30 1.49 1.59 1.54 1.53 1.79 2.15 2.34 2.45 2.51
2.78 2.55 2.54 2.37 2.47 2.50 2.65 2.67 2.68 2.59 2.56 2.52 2.48 2.49 2.42 2.45 2.54 2.54 2.71 2.73 2.59 2.54 2.51 2.43 2.28 2.03 1.92 1.85 1.75 1.58 1.46 1.46 1.59 1.65 1.67 1.77 1.83 1.75 1.82 2.06 2.30 2.49 2.64
2.73 2.74 2.77 2.63 2.69 2.83 2.78 2.68 2.74 2.93 2.93 2.87 2.82 2.88 2.78 2.80 2.87 3.02 2.97 2.82 2.73 2.67 2.65 2.75 2.60 2.33 2.24 2.27 2.17 1.87 1.60 1.61 1.72 1.80 1.79 1.86 2.01 1.95 1.96 1.91 2.01 2.20 2.41
2.69 2.60 2.70 2.81 2.72 2.86 2.92 2.89 2.92 3.15 3.27 3.30 3.28 3.17 3.11 3.16 3.19 3.34 3.31 3.11 2.89 2.80 2.81 2.66 2.67 2.58 2.61 2.56 2.18 1.93 1.68 1.63 1.71 1.73 1.78 1.85 2.03 2.12 2.14 1.97 2.02 2.24 2.39
2.71 2.69 2.68 2.91 2.87 3.03 3.14 3.02 3.06 3.10 3.21 3.33 3.46 3.50 3.59 3.63 3.62 3.65 3.55 3.39 3.21 3.08 3.01 2.89 2.84 2.81 2.68 2.54 2.12 1.92 1.74 1.60 1.61 1.66 1.70 1.78 1.84 1.87 1.95 1.99 2.06 2.01 2.15
2.87 2.87 2.73 2.78 2.98 3.03 3.15 3.26 3.49 3.46 3.44 3.68 3.91 4.01 4.15 4.20 4.05 4.03 3.93 3.76 3.55 3.33 3.16 3.00 2.86 2.73 2.54 2.40 2.24 2.04 1.75 1.53 1.55 1.59 1.54 1.60 1.69 1.67 1.70 1.78 1.95 1.93 1.86
2.94 2.95 2.96 3.10 3.14 3.24 3.56 4.02 4.43 4.71 4.81 4.83 4.97 4.96 4.83 4.67 4.55 4.41 4.30 4.07 3.80 3.56 3.31 3.09 2.85 2.63 2.44 2.31 2.28 2.34 2.08 1.80 1.47 1.29 1.30 1.33 1.36 1.37 1.43 1.52 1.57 1.64 1.65
2.71 2.90 2.96 3.28 3.62 3.98 4.45 4.93 5.32 5.63 5.75 5.58 5.38 5.26 5.02 4.79 4.60 4.26 4.01 3.94 3.71 3.37 3.15 2.98 2.78 2.59 2.38 2.24 2.15 2.30 2.25 2.03 1.68 1.47 1.28 1.18 1.20 1.27 1.32 1.40 1.44 1.40 1.37
2.44 2.71 2.99 3.28 3.86 4.62 5.25 5.74 6.17 6.30 6.24 6.07 5.79 5.38 4.93 4.56 4.24 3.94 3.65 3.37 3.15 2.89 2.67 2.53 2.45 2.41 2.32 2.18 2.12 1.97 1.79 1.67 1.71 1.58 1.41 1.30 1.25 1.27 1.23 1.18 1.21 1.23 1.23
2.23 2.50 2.85 3.22 3.88 4.56 5.18 5.74 6.14 6.29 6.18 5.89 5.42 4.89 4.37 3.91 3.51 3.19 2.92 2.63 2.40 2.22 2.06 1.91 1.90 2.03 2.12 2.09 2.08 2.05 1.89 1.72 1.65 1.59 1.52 1.48 1.45 1.41 1.30 1.21 1.15 1.12 1.09
1.84 2.14 2.56 3.01 3.51 4.02 4.39 4.91 5.22 5.38 5.33 5.00 4.48 3.86 3.41 3.08 2.76 2.46 2.21 2.00 1.79 1.61 1.51 1.46 1.45 1.50 1.64 1.75 1.80 1.85 1.85 1.90 1.87 1.80 1.72 1.67 1.63 1.56 1.43 1.33 1.24 1.21 1.17

GEFSSE_prec_meanprecacc_198.txt.gz
Total_Precipitation_Accumulation
0.17 0.08 0.10 0.09 0.08 0.09 0.08 0.10 0.11 0.13 0.11 0.10 0.10 0.09 0.08 0.08 0.07 0.06 0.06 0.07 0.09 0.14 0.19 0.22 0.24 0.27 0.30 0.24 0.15 0.11 0.11 0.10 0.12 0.15 0.18 0.22 0.26 0.31 0.34 0.31 0.35 0.35 0.28
0.16 0.09 0.10 0.09 0.10 0.10 0.08 0.09 0.11 0.12 0.10 0.09 0.08 0.08 0.08 0.08 0.09 0.08 0.08 0.08 0.11 0.14 0.15 0.17 0.20 0.21 0.20 0.14 0.11 0.10 0.11 0.13 0.22 0.34 0.43 0.44 0.44 0.44 0.51 0.51 0.54 0.51 0.29
0.20 0.14 0.11 0.10 0.09 0.09 0.08 0.11 0.12 0.12 0.12 0.11 0.10 0.08 0.09 0.09 0.09 0.09 0.09 0.10 0.14 0.17 0.16 0.15 0.14 0.13 0.12 0.10 0.10 0.12 0.17 0.23 0.41 0.63 0.96 1.16 0.91 0.76 0.68 0.61 0.54 0.42 0.36
0.22 0.19 0.14 0.12 0.11 0.09 0.09 0.11 0.13 0.13 0.11 0.10 0.09 0.09 0.09 0.09 0.09 0.10 0.11 0.13 0.18 0.21 0.20 0.16 0.13 0.10 0.09 0.09 0.10 0.14 0.21 0.32 0.55 0.87 1.55 1.58 1.51 1.35 0.85 0.61 0.50 0.47 0.51
0.20 0.17 0.17 0.15 0.13 0.12 0.11 0.13 0.14 0.14 0.12 0.11 0.11 0.12 0.12 0.11 0.11 0.13 0.17 0.21 0.22 0.23 0.24 0.22 0.16 0.12 0.10 0.10 0.11 0.17 0.24 0.38 0.71 1.09 1.58 1.98 2.24 1.74 1.11 0.79 0.62 0.57 0.63
0.20 0.17 0.16 0.16 0.16 0.17 0.17 0.17 0.18 0.18 0.15 0.15 0.14 0.15 0.14 0.14 0.14 0.18 0.26 0.32 0.30 0.28 0.30 0.29 0.25 0.18 0.13 0.11 0.13 0.20 0.31 0.49 0.71 1.05 1.58 2.25 2.14 1.67 1.27 1.01 0.81 0.73 0.74
0.24 0.24 0.19 0.21 0.24 0.22 0.23 0.22 0.23 0.21 0.23 0.24 0.23 0.21 0.20 0.20 0.21 0.26 0.34 0.37 0.36 0.35 0.35 0.30 0.23 0.16 0.13 0.14 0.16 0.22 0.35 0.53 0.70 1.22 1.72 2.09 1.92 1.53 1.35 1.15 1.03 0.94 0.85
0.28 0.24 0.22 0.25 0.28 0.29 0.29 0.29 0.29 0.29 0.28 0.28 0.27 0.27 0.24 0.24 0.27 0.32 0.36 0.38 0.38 0.34 0.29 0.25 0.22 0.19 0.19 0.20 0.21 0.27 0.37 0.44 0.55 1.07 1.55 1.72 1.45 1.39 1.41 1.22 1.09 0.98 0.91
0.38 0.36 0.36 0.38 0.38 0.41 0.43 0.41 0.38 0.37 0.35 0.32 0.29 0.26 0.24 0.25 0.30 0.34 0.39 0.44 0.42 0.33 0.28 0.26 0.24 0.22 0.21 0.21 0.22 0.26 0.31 0.44 0.53 0.86 1.42 1.73 1.27 1.34 1.47 1.32 1.13 1.02 0.94
0.72 0.71 0.72 0.69 0.63 0.53 0.46 0.44 0.46 0.46 0.42 0.37 0.30 0.26 0.28 0.33 0.39 0.45 0.42 0.44 0.41 0.36 0.32 0.31 0.27 0.23 0.23 0.22 0.24 0.27 0.33 0.37 0.43 0.80 1.32 1.42 1.32 1.56 1.69 1.49 1.23 1.12 0.97
1.30 1.25 1.08 0.97 0.84 0.84 0.76 0.56 0.58 0.55 0.52 0.46 0.43 0.38 0.41 0.54 0.68 0.75 0.62 0.62 0.54 0.48 0.45 0.44 0.39 0.36 0.33 0.30 0.32 0.36 0.38 0.38 0.59 0.94 1.53 1.61 1.75 1.85 1.93 1.75 1.46 1.28 1.16
1.71 1.55 1.27 1.26 1.21 1.12 0.98 0.91 0.89 0.76 0.73 0.66 0.76 0.68 0.76 1.07 1.19 1.04 1.00 0.84 0.80 0.75 0.67 0.66 0.62 0.51 0.45 0.47 0.56 0.55 0.42 0.47 0.66 0.99 1.33 1.56 1.74 1.94 2.00 1.80 1.56 1.40 1.39
1.76 1.52 1.44 1.53 1.48 1.50 1.49 1.43 1.29 1.23 1.17 1.03 1.14 1.13 1.22 1.23 1.17 1.20 1.29 1.17 1.08 1.05 1.08 1.10 0.88 0.73 0.76 0.82 0.81 0.72 0.60 0.66 0.74 0.96 1.28 1.47 1.62 1.99 2.12 1.90 1.67 1.58 1.57
2.06 1.79 1.63 1.51 1.60 1.78 1.74 1.70 1.71 1.67 1.63 1.54 1.51 1.37 1.49 1.55 1.59 1.58 1.69 1.69 1.70 1.68 1.65 1.55 1.37 1.22 1.13 1.12 1.07 1.03 0.90 0.88 1.01 1.22 1.41 1.40 1.47 1.81 2.08 2.07 1.86 1.73 1.65
2.54 2.29 2.00 1.92 1.90 1.91 1.98 1.99 1.77 1.84 1.85 1.97 1.95 1.74 1.79 1.81 1.88 2.05 2.07 2.17 2.10 2.24 2.18 1.96 1.69 1.59 1.50 1.28 1.22 1.24 1.19 1.16 1.21 1.33 1.52 1.58 1.53 1.71 2.02 2.20 2.11 1.99 1.97
2.77 2.62 2.36 2.17 2.13 2.02 2.18 2.35 2.21 2.03 2.06 2.08 2.16 2.06 2.07 2.14 2.24 2.33 2.38 2.45 2.31 2.33 2.35 2.22 1.94 1.80 1.70 1.53 1.36 1.26 1.24 1.39 1.40 1.34 1.55 1.67 1.58 1.57 1.84 2.20 2.38 2.49 2.55
2.91 2.64 2.64 2.45 2.56 2.60 2.74 2.75 2.76 2.67 2.63 2.58 2.53 2.55 2.48 2.50 2.60 2.61 2.77 2.80 2.68 2.61 2.57 2.48 2.33 2.07 1.96 1.87 1.77 1.60 1.49 1.50 1.62 1.68 1.70 1.80 1.85 1.78 1.87 2.10 2.33 2.53 2.67
2.80 2.80 2.87 2.72 2.77 2.91 2.86 2.79 2.92 3.09 3.03 2.94 2.89 2.94 2.84 2.87 2.96 3.10 3.05 2.92 2.83 2.74 2.70 2.81 2.64 2.37 2.27 2.29 2.18 1.90 1.62 1.65 1.75 1.82 1.81 1.88 2.02 1.96 1.98 1.94 2.04 2.23 2.44
2.73 2.66 2.79 2.93 2.78 2.94 3.02 3.02 3.05 3.23 3.33 3.36 3.35 3.25 3.20 3.25 3.26 3.40 3.35 3.16 2.94 2.84 2.86 2.71 2.73 2.62 2.63 2.58 2.19 1.95 1.69 1.65 1.73 1.75 1.80 1.87 2.05 2.13 2.15 1.98 2.04 2.26 2.43
2.76 2.76 2.80 3.03 2.96 3.13 3.25 3.11 3.12 3.15 3.28 3.41 3.55 3.59 3.67 3.71 3.68 3.70 3.59 3.43 3.26 3.13 3.07 2.95 2.89 2.85 2.70 2.56 2.14 1.93 1.75 1.61 1.62 1.68 1.72 1.80 1.86 1.89 1.98 2.01 2.07 2.02 2.18
2.96 2.97 2.87 2.92 3.09 3.13 3.24 3.33 3.55 3.53 3.53 3.80 4.05 4.13 4.25 4.29 4.13 4.09 3.98 3.81 3.60 3.38 3.20 3.03 2.89 2.75 2.56 2.42 2.27 2.06 1.77 1.54 1.58 1.61 1.56 1.63 1.72 1.70 1.74 1.81 1.97 1.94 1.87
3.08 3.09 3.11 3.24 3.25 3.33 3.64 4.10 4.51 4.80 4.90 4.92 5.06 5.06 4.92 4.75 4.63 4.48 4.38 4.14 3.85 3.59 3.35 3.12 2.88 2.65 2.46 2.33 2.30 2.35 2.09 1.81 1.48 1.30 1.32 1.35 1.39 1.42 1.50 1.60 1.63 1.67 1.67
2.91 3.08 3.12 3.39 3.72 4.10 4.57 5.04 5.42 5.73 5.84 5.67 5.46 5.34 5.10 4.86 4.68 4.35 4.10 4.01 3.78 3.42 3.20 3.02 2.81 2.62 2.41 2.27 2.18 2.32 2.26 2.04 1.69 1.48 1.30 1.20 1.23 1.31 1.37 1.47 1.50 1.43 1.39
2.60 2.84 3.08 3.37 3.95 4.76 5.42 5.89 6.27 6.38 6.31 6.13 5.87 5.48 5.02 4.66 4.33 4.02 3.74 3.46 3.22 2.96 2.74 2.58 2.49 2.45 2.36 2.21 2.15 1.99 1.80 1.68 1.73 1.61 1.44 1.34 1.30 1.31 1.27 1.23 1.26 1.27 1.26
2.36 2.59 2.91 3.28 3.95 4.64 5.27 5.86 6.25 6.37 6.26 5.99 5.53 5.01 4.49 4.02 3.62 3.27 2.99 2.73 2.51 2.31 2.13 1.97 1.94 2.06 2.15 2.13 2.12 2.08 1.91 1.74 1.67 1.62 1.55 1.51 1.49 1.44 1.32 1.23 1.18 1.15 1.14
1.97 2.24 2.62 3.05 3.56 4.10 4.47 4.97 5.31 5.49 5.42 5.08 4.58 3.96 3.50 3.19 2.91 2.58 2.30 2.09 1.87 1.68 1.56 1.51 1.49 1.54 1.67 1.79 1.85 1.88 1.88 1.92 1.89 1.82 1.73 1.69 1.65 1.57 1.44 1.33 1.25 1.21 1.18

GEFSSE_prec_meanprecacc_204.txt.gz
Total_Precipitation_Accumulation
0.18 0.10 0.12 0.10 0.09 0.09 0.08 0.10 0.11 0.13 0.11 0.10 0.10 0.09 0.09 0.08 0.08 0.06 0.06 0.07 0.10 0.15 0.20 0.23 0.25 0.28 0.31 0.24 0.16 0.12 0.12 0.12 0.14 0.16 0.19 0.23 0.27 0.33 0.37 0.34 0.39 0.38 0.30
0.17 0.10 0.12 0.11 0.11 0.11 0.09 0.10 0.11 0.12 0.10 0.09 0.09 0.08 0.08 0.08 0.09 0.09 0.08 0.09 0.12 0.15 0.15 0.17 0.20 0.22 0.20 0.15 0.11 0.10 0.11 0.14 0.23 0.35 0.44 0.46 0.46 0.48 0.56 0.58 0.60 0.56 0.33
0.21 0.15 0.12 0.12 0.11 0.10 0.09 0.11 0.12 0.13 0.12 0.11 0.10 0.09 0.09 0.09 0.09 0.09 0.09 0.10 0.15 0.17 0.16 0.15 0.14 0.14 0.12 0.10 0.10 0.12 0.17 0.23 0.42 0.64 0.98 1.17 0.93 0.80 0.74 0.69 0.62 0.48 0.42
0.24 0.21 0.16 0.14 0.12 0.10 0.09 0.11 0.13 0.13 0.12 0.11 0.10 0.09 0.09 0.09 0.09 0.10 0.12 0.13 0.18 0.21 0.20 0.16 0.13 0.11 0.09 0.09 0.10 0.15 0.22 0.32 0.57 0.89 1.56 1.59 1.52 1.38 0.91 0.68 0.57 0.53 0.57
0.21 0.20 0.20 0.16 0.13 0.12 0.12 0.13 0.15 0.15 0.12 0.12 0.11 0.12 0.12 0.11 0.11 0.13 0.18 0.21 0.23 0.23 0.24 0.22 0.17 0.13 0.11 0.10 0.11 0.17 0.25 0.38 0.73 1.10 1.59 2.00 2.27 1.78 1.18 0.86 0.68 0.63 0.69
0.21 0.19 0.19 0.18 0.18 0.19 0.18 0.18 0.19 0.18 0.16 0.16 0.15 0.15 0.14 0.14 0.15 0.18 0.27 0.32 0.31 0.28 0.31 0.30 0.25 0.19 0.14 0.12 0.13 0.20 0.31 0.49 0.71 1.05 1.59 2.27 2.17 1.72 1.34 1.09 0.88 0.80 0.81
0.25 0.25 0.21 0.23 0.25 0.24 0.24 0.22 0.23 0.22 0.24 0.25 0.24 0.21 0.20 0.20 0.21 0.26 0.35 0.37 0.36 0.35 0.35 0.31 0.24 0.16 0.14 0.15 0.16 0.22 0.36 0.54 0.71 1.23 1.72 2.10 1.93 1.56 1.40 1.22 1.12 1.03 0.93
0.28 0.24 0.23 0.26 0.29 0.30 0.30 0.30 0.30 0.30 0.29 0.29 0.28 0.28 0.25 0.24 0.27 0.32 0.37 0.38 0.38 0.35 0.30 0.26 0.22 0.19 0.19 0.20 0.21 0.27 0.38 0.45 0.55 1.07 1.55 1.72 1.45 1.41 1.47 1.30 1.18 1.07 0.98
0.38 0.37 0.37 0.39 0.40 0.43 0.45 0.42 0.39 0.37 0.35 0.32 0.30 0.27 0.24 0.26 0.30 0.34 0.40 0.44 0.42 0.34 0.28 0.27 0.25 0.22 0.22 0.22 0.22 0.26 0.33 0.46 0.54 0.87 1.42 1.73 1.27 1.36 1.53 1.40 1.21 1.11 1.02
0.73 0.73 0.74 0.72 0.65 0.55 0.48 0.46 0.47 0.46 0.42 0.37 0.31 0.27 0.29 0.33 0.39 0.46 0.43 0.45 0.42 0.37 0.34 0.32 0.28 0.24 0.24 0.23 0.24 0.28 0.34 0.38 0.44 0.81 1.32 1.43 1.33 1.59 1.75 1.56 1.31 1.21 1.06
1.32 1.27 1.12 1.00 0.86 0.86 0.77 0.58 0.59 0.57 0.53 0.47 0.44 0.38 0.42 0.54 0.69 0.75 0.62 0.63 0.57 0.51 0.48 0.47 0.42 0.38 0.34 0.31 0.33 0.37 0.39 0.38 0.60 0.95 1.53 1.62 1.76 1.88 1.98 1.81 1.52 1.37 1.26
1.77 1.62 1.33 1.31 1.24 1.14 0.99 0.92 0.90 0.78 0.74 0.67 0.77 0.68 0.77 1.08 1.19 1.04 1.01 0.87 0.86 0.82 0.71 0.70 0.66 0.54 0.47 0.48 0.57 0.56 0.43 0.49 0.68 1.00 1.33 1.57 1.76 1.97 2.04 1.85 1.62 1.46 1.47
1.81 1.56 1.48 1.56 1.51 1.52 1.50 1.44 1.30 1.24 1.19 1.06 1.16 1.15 1.23 1.24 1.18 1.21 1.31 1.23 1.15 1.09 1.12 1.13 0.92 0.76 0.78 0.84 0.83 0.74 0.62 0.68 0.75 0.97 1.29 1.49 1.66 2.03 2.16 1.94 1.71 1.63 1.63
2.10 1.84 1.68 1.56 1.64 1.82 1.78 1.74 1.75 1.72 1.68 1.58 1.56 1.41 1.52 1.58 1.61 1.62 1.74 1.73 1.73 1.70 1.68 1.57 1.40 1.26 1.16 1.14 1.10 1.06 0.92 0.89 1.02 1.23 1.42 1.43 1.52 1.86 2.13 2.12 1.91 1.77 1.70
2.57 2.34 2.07 1.99 1.95 1.98 2.06 2.06 1.85 1.94 1.95 2.06 2.02 1.79 1.84 1.86 1.92 2.09 2.09 2.19 2.13 2.27 2.21 2.01 1.75 1.65 1.53 1.30 1.24 1.26 1.21 1.18 1.23 1.34 1.53 1.60 1.57 1.76 2.09 2.27 2.17 2.04 2.02
2.80 2.65 2.40 2.24 2.20 2.09 2.24 2.41 2.27 2.11 2.14 2.16 2.23 2.12 2.14 2.20 2.30 2.39 2.43 2.48 2.35 2.38 2.42 2.29 2.00 1.84 1.73 1.55 1.37 1.29 1.27 1.41 1.42 1.36 1.57 1.69 1.61 1.61 1.89 2.25 2.44 2.55 2.61
2.95 2.67 2.67 2.49 2.60 2.65 2.80 2.80 2.83 2.74 2.70 2.64 2.57 2.59 2.52 2.55 2.64 2.66 2.82 2.85 2.74 2.67 2.62 2.52 2.37 2.10 1.99 1.90 1.79 1.63 1.51 1.51 1.63 1.69 1.71 1.82 1.88 1.80 1.91 2.14 2.39 2.58 2.73
2.85 2.84 2.90 2.75 2.78 2.93 2.90 2.84 2.98 3.18 3.12 3.02 2.95 2.99 2.90 2.92 3.01 3.16 3.10 2.96 2.86 2.78 2.74 2.85 2.69 2.41 2.31 2.33 2.21 1.92 1.64 1.66 1.77 1.84 1.83 1.91 2.05 1.98 2.00 1.98 2.10 2.30 2.53
2.80 2.72 2.84 2.98 2.82 2.98 3.06 3.05 3.10 3.28 3.38 3.41 3.40 3.28 3.24 3.31 3.32 3.46 3.40 3.19 2.98 2.89 2.91 2.76 2.78 2.69 2.70 2.62 2.22 1.96 1.71 1.66 1.74 1.77 1.82 1.89 2.07 2.15 2.17 2.02 2.10 2.33 2.50
2.84 2.84 2.88 3.11 3.03 3.23 3.34 3.15 3.16 3.21 3.34 3.48 3.61 3.64 3.73 3.78 3.75 3.76 3.65 3.48 3.32 3.18 3.12 2.99 2.94 2.91 2.76 2.61 2.18 1.96 1.77 1.63 1.64 1.70 1.74 1.82 1.88 1.92 2.00 2.04 2.10 2.05 2.22
3.04 3.07 2.99 3.02 3.18 3.26 3.39 3.43 3.62 3.61 3.61 3.87 4.12 4.18 4.30 4.33 4.17 4.13 4.04 3.89 3.68 3.44 3.25 3.08 2.94 2.80 2.61 2.47 2.32 2.11 1.80 1.57 1.59 1.62 1.58 1.65 1.73 1.72 1.76 1.83 2.00 1.96 1.89
3.18 3.24 3.29 3.38 3.38 3.48 3.82 4.27 4.63 4.90 4.98 4.97 5.11 5.11 4.97 4.81 4.68 4.53 4.44 4.22 3.93 3.67 3.41 3.17 2.93 2.70 2.50 2.37 2.35 2.41 2.14 1.85 1.50 1.31 1.33 1.37 1.41 1.44 1.52 1.62 1.66 1.69 1.69
3.02 3.22 3.27 3.53 3.85 4.22 4.70 5.17 5.53 5.81 5.91 5.73 5.53 5.42 5.19 4.95 4.76 4.42 4.17 4.09 3.84 3.48 3.26 3.09 2.89 2.69 2.46 2.32 2.23 2.37 2.30 2.06 1.71 1.50 1.32 1.23 1.25 1.34 1.39 1.50 1.52 1.46 1.42
2.73 2.97 3.20 3.47 4.06 4.87 5.52 5.97 6.34 6.45 6.38 6.22 5.98 5.62 5.15 4.77 4.42 4.12 3.82 3.53 3.28 3.01 2.79 2.64 2.56 2.51 2.43 2.28 2.21 2.06 1.86 1.72 1.75 1.63 1.45 1.36 1.32 1.33 1.29 1.26 1.29 1.30 1.29
2.48 2.72 3.04 3.40 4.06 4.75 5.37 5.95 6.34 6.45 6.35 6.09 5.65 5.16 4.65 4.17 3.76 3.40 3.09 2.79 2.55 2.34 2.16 2.00 1.98 2.11 2.19 2.17 2.16 2.13 1.98 1.81 1.72 1.65 1.57 1.53 1.50 1.45 1.33 1.24 1.19 1.16 1.15
2.08 2.37 2.76 3.17 3.66 4.19 4.56 5.07 5.43 5.60 5.52 5.16 4.66 4.05 3.61 3.31 3.03 2.71 2.40 2.14 1.91 1.70 1.58 1.53 1.52 1.57 1.72 1.83 1.89 1.92 1.91 1.95 1.93 1.85 1.76 1.70 1.66 1.58 1.45 1.34 1.25 1.22 1.19

GEFSSE_prec_meanprecacc_210.txt.gz
Total_Precipitation_Accumulation
0.19 0.10 0.13 0.13 0.11 0.10 0.09 0.11 0.13 0.14 0.13 0.12 0.11 0.10 0.09 0.08 0.08 0.07 0.07 0.08 0.11 0.17 0.22 0.24 0.25 0.29 0.31 0.25 0.17 0.13 0.13 0.13 0.15 0.17 0.20 0.23 0.28 0.34 0.38 0.35 0.40 0.39 0.32
0.18 0.11 0.13 0.13 0.14 0.13 0.11 0.12 0.13 0.13 0.11 0.10 0.09 0.09 0.09 0.09 0.09 0.09 0.09 0.10 0.13 0.15 0.16 0.17 0.21 0.22 0.21 0.15 0.12 0.11 0.12 0.14 0.23 0.36 0.45 0.47 0.47 0.49 0.57 0.59 0.62 0.58 0.35
0.22 0.17 0.14 0.14 0.14 0.13 0.12 0.13 0.14 0.13 0.12 0.11 0.10 0.09 0.09 0.09 0.10 0.10 0.10 0.11 0.15 0.17 0.16 0.15 0.15 0.14 0.12 0.11 0.10 0.13 0.17 0.24 0.43 0.65 0.98 1.19 0.95 0.81 0.75 0.71 0.63 0.49 0.43
0.26 0.24 0.18 0.17 0.15 0.13 0.12 0.13 0.14 0.14 0.12 0.11 0.10 0.10 0.09 0.09 0.10 0.11 0.12 0.14 0.19 0.22 0.20 0.16 0.13 0.11 0.10 0.10 0.11 0.15 0.22 0.33 0.58 0.90 1.57 1.60 1.54 1.39 0.91 0.69 0.58 0.54 0.59
0.26 0.25 0.25 0.20 0.16 0.15 0.14 0.15 0.17 0.17 0.15 0.14 0.13 0.13 0.13 0.12 0.12 0.14 0.18 0.21 0.23 0.23 0.25 0.23 0.18 0.15 0.13 0.12 0.13 0.18 0.26 0.39 0.73 1.11 1.60 2.01 2.29 1.80 1.19 0.87 0.70 0.65 0.71
0.27 0.25 0.23 0.22 0.20 0.21 0.20 0.20 0.20 0.20 0.18 0.18 0.18 0.18 0.16 0.16 0.16 0.19 0.27 0.33 0.31 0.29 0.32 0.31 0.27 0.20 0.15 0.14 0.16 0.21 0.32 0.50 0.72 1.05 1.60 2.27 2.17 1.73 1.36 1.12 0.90 0.82 0.84
0.29 0.31 0.25 0.28 0.28 0.27 0.26 0.23 0.25 0.24 0.25 0.27 0.26 0.23 0.22 0.21 0.23 0.27 0.35 0.38 0.37 0.37 0.37 0.33 0.26 0.18 0.15 0.16 0.18 0.23 0.36 0.55 0.72 1.24 1.73 2.10 1.93 1.57 1.42 1.27 1.17 1.06 0.97
0.31 0.27 0.27 0.29 0.31 0.31 0.31 0.31 0.31 0.31 0.30 0.30 0.30 0.29 0.26 0.25 0.28 0.34 0.38 0.40 0.40 0.37 0.33 0.28 0.24 0.21 0.21 0.21 0.23 0.29 0.40 0.46 0.57 1.09 1.56 1.72 1.46 1.42 1.49 1.34 1.24 1.13 1.03
0.40 0.40 0.41 0.43 0.43 0.45 0.47 0.43 0.40 0.38 0.36 0.34 0.32 0.28 0.26 0.27 0.32 0.36 0.42 0.47 0.45 0.37 0.32 0.29 0.27 0.24 0.23 0.23 0.23 0.28 0.35 0.48 0.55 0.87 1.42 1.74 1.28 1.37 1.55 1.44 1.26 1.17 1.08
0.75 0.77 0.78 0.75 0.68 0.58 0.51 0.49 0.50 0.49 0.44 0.39 0.33 0.28 0.30 0.34 0.41 0.48 0.46 0.48 0.46 0.42 0.39 0.37 0.32 0.27 0.26 0.25 0.26 0.30 0.36 0.40 0.45 0.82 1.33 1.43 1.33 1.60 1.77 1.59 1.35 1.26 1.11
1.34 1.29 1.15 1.03 0.89 0.90 0.81 0.62 0.64 0.61 0.58 0.51 0.47 0.41 0.44 0.56 0.71 0.78 0.65 0.66 0.60 0.56 0.54 0.53 0.48 0.44 0.39 0.34 0.36 0.40 0.43 0.41 0.62 0.97 1.54 1.62 1.77 1.89 2.00 1.84 1.57 1.41 1.31
1.79 1.64 1.35 1.33 1.28 1.18 1.03 0.95 0.92 0.81 0.78 0.71 0.81 0.72 0.81 1.11 1.22 1.07 1.04 0.90 0.89 0.86 0.76 0.76 0.72 0.60 0.52 0.54 0.61 0.61 0.47 0.53 0.72 1.03 1.35 1.58 1.77 1.98 2.05 1.88 1.65 1.50 1.52
1.82 1.58 1.50 1.58 1.54 1.55 1.53 1.47 1.32 1.27 1.22 1.10 1.21 1.20 1.28 1.27 1.21 1.24 1.35 1.27 1.19 1.14 1.16 1.18 0.98 0.82 0.84 0.90 0.89 0.79 0.67 0.73 0.80 1.00 1.31 1.52 1.69 2.05 2.19 1.97 1.75 1.67 1.67
2.10 1.84 1.69 1.58 1.67 1.85 1.80 1.76 1.77 1.74 1.72 1.63 1.60 1.43 1.55 1.61 1.65 1.64 1.77 1.76 1.77 1.74 1.72 1.62 1.45 1.31 1.21 1.18 1.13 1.09 0.95 0.94 1.05 1.27 1.45 1.46 1.55 1.89 2.16 2.15 1.94 1.81 1.74
2.57 2.35 2.08 2.00 1.97 1.99 2.08 2.08 1.88 1.98 2.00 2.11 2.05 1.81 1.86 1.89 1.95 2.12 2.12 2.22 2.15 2.30 2.25 2.05 1.79 1.70 1.57 1.34 1.26 1.28 1.24 1.21 1.26 1.37 1.55 1.62 1.60 1.80 2.13 2.31 2.21 2.08 2.06
2.81 2.66 2.41 2.25 2.21 2.10 2.26 2.43 2.30 2.14 2.18 2.20 2.26 2.14 2.16 2.22 2.32 2.41 2.45 2.50 2.37 2.41 2.46 2.34 2.05 1.90 1.77 1.59 1.40 1.31 1.30 1.45 1.44 1.39 1.59 1.71 1.64 1.65 1.93 2.31 2.49 2.60 2.67
2.97 2.69 2.68 2.50 2.61 2.67 2.82 2.82 2.85 2.76 2.72 2.67 2.60 2.61 2.54 2.57 2.66 2.69 2.84 2.87 2.76 2.71 2.66 2.57 2.41 2.16 2.03 1.94 1.83 1.66 1.53 1.54 1.65 1.72 1.75 1.85 1.90 1.84 1.96 2.20 2.46 2.64 2.79
2.88 2.87 2.93 2.77 2.81 2.97 2.93 2.86 3.00 3.20 3.15 3.05 2.97 3.02 2.93 2.95 3.04 3.19 3.13 2.99 2.90 2.80 2.77 2.89 2.73 2.46 2.36 2.38 2.25 1.95 1.68 1.70 1.80 1.87 1.86 1.93 2.07 2.00 2.04 2.03 2.15 2.36 2.58
2.84 2.77 2.90 3.03 2.87 3.03 3.11 3.09 3.13 3.32 3.41 3.44 3.43 3.32 3.29 3.36 3.37 3.51 3.45 3.24 3.02 2.92 2.94 2.80 2.83 2.73 2.74 2.66 2.26 2.01 1.74 1.70 1.78 1.80 1.83 1.91 2.09 2.18 2.21 2.05 2.13 2.37 2.55
2.89 2.89 2.95 3.20 3.14 3.34 3.42 3.21 3.21 3.25 3.38 3.51 3.65 3.68 3.78 3.84 3.82 3.82 3.70 3.54 3.37 3.23 3.16 3.03 2.98 2.95 2.81 2.66 2.23 2.00 1.80 1.65 1.66 1.72 1.75 1.84 1.90 1.94 2.03 2.07 2.13 2.09 2.27
3.08 3.13 3.08 3.13 3.30 3.38 3.49 3.49 3.67 3.65 3.65 3.91 4.15 4.23 4.35 4.40 4.24 4.18 4.08 3.92 3.72 3.47 3.28 3.12 2.96 2.83 2.64 2.52 2.37 2.15 1.83 1.59 1.61 1.64 1.60 1.67 1.76 1.75 1.80 1.87 2.04 1.99 1.93
3.22 3.29 3.38 3.48 3.46 3.57 3.92 4.35 4.71 4.96 5.04 5.02 5.15 5.16 5.02 4.86 4.72 4.57 4.48 4.25 3.96 3.70 3.43 3.19 2.95 2.72 2.52 2.41 2.40 2.46 2.19 1.88 1.53 1.33 1.35 1.39 1.45 1.48 1.56 1.66 1.69 1.72 1.72
3.05 3.26 3.33 3.61 3.92 4.31 4.81 5.26 5.61 5.88 5.99 5.80 5.59 5.47 5.23 4.98 4.80 4.46 4.21 4.12 3.87 3.50 3.28 3.12 2.92 2.71 2.49 2.34 2.27 2.43 2.35 2.10 1.74 1.52 1.34 1.25 1.28 1.37 1.43 1.53 1.55 1.49 1.46
2.76 3.02 3.25 3.52 4.11 4.94 5.60 6.06 6.41 6.52 6.45 6.28 6.05 5.68 5.20 4.82 4.48 4.17 3.87 3.57 3.31 3.04 2.81 2.66 2.58 2.54 2.46 2.31 2.25 2.09 1.92 1.78 1.81 1.67 1.48 1.38 1.35 1.36 1.33 1.29 1.32 1.34 1.33
2.51 2.77 3.09 3.45 4.10 4.79 5.42 6.01 6.41 6.51 6.41 6.16 5.73 5.25 4.72 4.24 3.81 3.45 3.14 2.84 2.60 2.37 2.19 2.02 2.01 2.14 2.22 2.20 2.19 2.16 2.03 1.88 1.80 1.70 1.61 1.57 1.54 1.49 1.38 1.29 1.24 1.21 1.20
2.10 2.39 2.79 3.20 3.70 4.23 4.61 5.13 5.50 5.66 5.57 5.22 4.73 4.12 3.69 3.39 3.10 2.76 2.44 2.19 1.96 1.75 1.62 1.56 1.55 1.60 1.75 1.87 1.93 1.96 1.96 2.02 2.00 1.91 1.81 1.75 1.72 1.64 1.51 1.40 1.31 1.27 1.24

GEFSSE_prec_meanprecacc_216.txt.gz
Total_Precipitation_Accumulation
0.19 0.10 0.13 0.13 0.11 0.11 0.10 0.12 0.14 0.15 0.14 0.13 0.12 0.10 0.10 0.09 0.09 0.07 0.07 0.08 0.11 0.17 0.22 0.24 0.25 0.29 0.32 0.25 0.17 0.14 0.13 0.13 0.15 0.17 0.20 0.23 0.28 0.34 0.38 0.36 0.42 0.43 0.36
0.18 0.11 0.13 0.13 0.14 0.14 0.11 0.13 0.14 0.14 0.12 0.11 0.10 0.10 0.10 0.09 0.10 0.10 0.10 0.10 0.13 0.15 0.16 0.18 0.21 0.23 0.21 0.15 0.12 0.11 0.12 0.15 0.24 0.36 0.45 0.47 0.48 0.50 0.57 0.59 0.64 0.66 0.41
0.22 0.17 0.14 0.14 0.14 0.14 0.12 0.13 0.14 0.14 0.13 0.12 0.11 0.10 0.10 0.09 0.10 0.10 0.10 0.11 0.15 0.17 0.16 0.15 0.15 0.14 0.13 0.11 0.11 0.13 0.17 0.24 0.43 0.66 0.99 1.22 0.98 0.82 0.76 0.72 0.64 0.51 0.44
0.26 0.24 0.18 0.17 0.15 0.13 0.13 0.13 0.15 0.15 0.14 0.12 0.11 0.10 0.10 0.10 0.11 0.12 0.13 0.14 0.19 0.22 0.20 0.16 0.13 0.11 0.11 0.11 0.12 0.16 0.23 0.33 0.58 0.91 1.60 1.65 1.57 1.42 0.93 0.71 0.59 0.54 0.59
0.27 0.26 0.26 0.20 0.17 0.15 0.15 0.17 0.19 0.19 0.16 0.14 0.14 0.14 0.14 0.13 0.13 0.15 0.19 0.22 0.23 0.24 0.25 0.23 0.18 0.16 0.14 0.12 0.13 0.19 0.26 0.40 0.75 1.13 1.64 2.05 2.32 1.85 1.23 0.90 0.71 0.66 0.72
0.28 0.27 0.24 0.23 0.21 0.22 0.22 0.21 0.22 0.21 0.19 0.19 0.18 0.18 0.17 0.17 0.18 0.21 0.28 0.34 0.32 0.30 0.32 0.32 0.28 0.21 0.16 0.15 0.17 0.22 0.32 0.51 0.74 1.12 1.67 2.31 2.21 1.77 1.39 1.14 0.91 0.84 0.85
0.31 0.34 0.26 0.30 0.30 0.29 0.27 0.24 0.26 0.25 0.25 0.27 0.26 0.24 0.22 0.22 0.24 0.29 0.36 0.39 0.38 0.38 0.38 0.34 0.26 0.19 0.16 0.17 0.19 0.24 0.37 0.55 0.73 1.26 1.75 2.12 1.95 1.60 1.44 1.28 1.18 1.08 0.99
0.34 0.31 0.30 0.32 0.34 0.33 0.32 0.32 0.31 0.32 0.31 0.31 0.30 0.29 0.26 0.26 0.29 0.34 0.39 0.41 0.41 0.38 0.34 0.30 0.25 0.22 0.21 0.22 0.24 0.30 0.40 0.47 0.57 1.09 1.56 1.73 1.47 1.43 1.50 1.36 1.27 1.17 1.07
0.43 0.44 0.46 0.48 0.47 0.48 0.49 0.45 0.42 0.40 0.38 0.35 0.32 0.29 0.26 0.27 0.32 0.36 0.42 0.47 0.46 0.38 0.33 0.30 0.28 0.24 0.24 0.24 0.24 0.28 0.35 0.48 0.56 0.88 1.43 1.74 1.29 1.37 1.56 1.46 1.29 1.20 1.12
0.78 0.80 0.83 0.81 0.73 0.62 0.54 0.52 0.53 0.51 0.47 0.41 0.34 0.29 0.30 0.35 0.41 0.49 0.46 0.48 0.46 0.43 0.40 0.38 0.34 0.29 0.28 0.27 0.27 0.30 0.37 0.41 0.45 0.82 1.33 1.44 1.34 1.60 1.78 1.60 1.37 1.29 1.14
1.38 1.32 1.19 1.08 0.94 0.93 0.83 0.64 0.67 0.65 0.60 0.53 0.49 0.42 0.45 0.58 0.74 0.81 0.66 0.67 0.61 0.57 0.55 0.54 0.49 0.45 0.41 0.37 0.37 0.42 0.44 0.42 0.62 0.97 1.54 1.63 1.77 1.90 2.01 1.85 1.58 1.45 1.34
1.83 1.68 1.39 1.37 1.33 1.22 1.05 0.97 0.95 0.84 0.82 0.75 0.86 0.76 0.84 1.15 1.26 1.10 1.07 0.93 0.91 0.88 0.78 0.77 0.73 0.61 0.54 0.56 0.66 0.65 0.49 0.54 0.73 1.04 1.36 1.59 1.78 2.00 2.07 1.89 1.68 1.54 1.55
1.86 1.61 1.53 1.61 1.57 1.59 1.56 1.48 1.33 1.29 1.25 1.13 1.25 1.23 1.32 1.32 1.26 1.29 1.39 1.30 1.22 1.16 1.19 1.21 1.00 0.84 0.88 0.95 0.94 0.83 0.70 0.76 0.82 1.02 1.32 1.52 1.70 2.06 2.20 1.99 1.77 1.70 1.71
2.13 1.87 1.71 1.59 1.69 1.87 1.83 1.79 1.79 1.76 1.75 1.67 1.64 1.46 1.59 1.66 1.70 1.70 1.83 1.82 1.82 1.80 1.77 1.66 1.48 1.36 1.25 1.22 1.17 1.13 1.00 0.99 1.11 1.31 1.48 1.48 1.57 1.91 2.18 2.17 1.96 1.83 1.77
2.59 2.37 2.10 2.02 1.98 2.01 2.11 2.13 1.91 2.00 2.02 2.16 2.11 1.87 1.91 1.94 2.01 2.18 2.17 2.26 2.20 2.35 2.30 2.09 1.83 1.73 1.60 1.37 1.29 1.30 1.27 1.25 1.31 1.41 1.59 1.66 1.63 1.82 2.15 2.34 2.24 2.10 2.09
2.82 2.68 2.43 2.28 2.24 2.13 2.29 2.49 2.35 2.17 2.21 2.25 2.31 2.18 2.21 2.29 2.38 2.47 2.50 2.55 2.42 2.45 2.50 2.37 2.08 1.94 1.81 1.62 1.42 1.33 1.32 1.46 1.47 1.42 1.63 1.76 1.67 1.67 1.95 2.33 2.52 2.64 2.70
3.00 2.72 2.70 2.52 2.65 2.72 2.86 2.87 2.89 2.80 2.77 2.72 2.64 2.65 2.60 2.65 2.73 2.74 2.90 2.92 2.80 2.74 2.69 2.60 2.45 2.21 2.07 1.97 1.84 1.67 1.54 1.55 1.67 1.74 1.78 1.88 1.93 1.86 1.98 2.23 2.49 2.68 2.83
2.94 2.92 2.98 2.81 2.86 3.02 2.99 2.92 3.05 3.24 3.20 3.09 3.00 3.05 2.97 3.00 3.09 3.24 3.18 3.04 2.94 2.84 2.81 2.93 2.77 2.49 2.41 2.43 2.29 1.98 1.69 1.72 1.82 1.89 1.87 1.94 2.09 2.03 2.07 2.05 2.17 2.39 2.64
2.92 2.83 2.97 3.12 2.96 3.13 3.20 3.18 3.21 3.39 3.47 3.49 3.48 3.37 3.33 3.40 3.41 3.55 3.50 3.29 3.08 2.97 2.99 2.83 2.87 2.79 2.79 2.71 2.30 2.04 1.76 1.72 1.81 1.82 1.85 1.92 2.11 2.20 2.24 2.08 2.15 2.40 2.59
2.96 2.95 3.02 3.27 3.22 3.44 3.54 3.32 3.31 3.33 3.44 3.56 3.69 3.72 3.82 3.89 3.87 3.86 3.74 3.59 3.43 3.28 3.20 3.07 3.03 3.01 2.86 2.71 2.27 2.05 1.84 1.68 1.69 1.76 1.78 1.86 1.92 1.96 2.05 2.10 2.16 2.12 2.30
3.14 3.19 3.15 3.21 3.42 3.53 3.65 3.63 3.78 3.74 3.72 3.96 4.19 4.26 4.38 4.44 4.29 4.23 4.12 4.00 3.78 3.53 3.35 3.17 3.02 2.89 2.70 2.59 2.45 2.22 1.89 1.63 1.66 1.68 1.64 1.70 1.78 1.77 1.83 1.91 2.08 2.03 1.97
3.28 3.35 3.45 3.55 3.56 3.69 4.07 4.50 4.85 5.09 5.14 5.10 5.22 5.22 5.07 4.90 4.78 4.64 4.57 4.36 4.04 3.77 3.50 3.26 3.04 2.80 2.58 2.50 2.49 2.55 2.24 1.93 1.58 1.38 1.39 1.42 1.47 1.49 1.58 1.69 1.74 1.76 1.76
3.09 3.31 3.40 3.69 4.00 4.40 4.92 5.39 5.74 6.02 6.12 5.91 5.68 5.56 5.32 5.07 4.89 4.55 4.32 4.24 3.97 3.58 3.36 3.21 3.01 2.79 2.56 2.42 2.35 2.52 2.42 2.16 1.80 1.57 1.38 1.27 1.30 1.39 1.44 1.54 1.58 1.52 1.48
2.80 3.06 3.31 3.59 4.19 5.03 5.71 6.17 6.51 6.64 6.59 6.42 6.15 5.78 5.28 4.89 4.54 4.24 3.96 3.67 3.42 3.14 2.92 2.74 2.67 2.64 2.55 2.37 2.32 2.17 1.98 1.86 1.89 1.73 1.53 1.42 1.38 1.40 1.35 1.31 1.34 1.37 1.37
2.56 2.81 3.15 3.51 4.19 4.89 5.53 6.11 6.53 6.65 6.56 6.30 5.84 5.34 4.80 4.32 3.89 3.53 3.23 2.93 2.69 2.46 2.28 2.11 2.09 2.21 2.29 2.26 2.25 2.22 2.11 1.97 1.89 1.79 1.68 1.63 1.60 1.54 1.42 1.32 1.28 1.26 1.25
2.14 2.42 2.83 3.24 3.76 4.31 4.69 5.22 5.61 5.79 5.70 5.33 4.83 4.22 3.79 3.47 3.16 2.82 2.50 2.25 2.03 1.82 1.70 1.64 1.63 1.68 1.83 1.95 2.00 2.02 2.03 2.09 2.08 2.00 1.89 1.83 1.80 1.70 1.56 1.45 1.36 1.33 1.29

GEFSSE_prec_meanprecacc_222.txt.gz
Total_Precipitation_Accumulation
0.23 0.11 0.14 0.13 0.11 0.11 0.10 0.12 0.14 0.16 0.14 0.13 0.12 0.10 0.10 0.10 0.09 0.07 0.07 0.08 0.11 0.17 0.22 0.24 0.25 0.29 0.32 0.26 0.18 0.14 0.15 0.14 0.16 0.19 0.22 0.26 0.31 0.37 0.41 0.39 0.45 0.45 0.39
0.23 0.12 0.14 0.14 0.14 0.14 0.11 0.13 0.14 0.14 0.13 0.11 0.10 0.10 0.10 0.09 0.10 0.10 0.10 0.10 0.13 0.16 0.16 0.18 0.21 0.23 0.21 0.15 0.12 0.11 0.12 0.15 0.25 0.37 0.46 0.49 0.50 0.52 0.60 0.62 0.66 0.68 0.43
0.32 0.20 0.15 0.14 0.14 0.14 0.13 0.14 0.14 0.15 0.14 0.13 0.11 0.10 0.10 0.09 0.10 0.10 0.10 0.11 0.15 0.17 0.16 0.15 0.15 0.14 0.13 0.11 0.11 0.13 0.18 0.25 0.44 0.68 1.02 1.23 1.00 0.86 0.81 0.76 0.68 0.55 0.48
0.34 0.29 0.20 0.17 0.15 0.14 0.13 0.14 0.15 0.15 0.14 0.12 0.11 0.10 0.10 0.10 0.11 0.12 0.13 0.15 0.19 0.22 0.20 0.16 0.13 0.11 0.11 0.11 0.12 0.16 0.24 0.34 0.60 0.93 1.62 1.68 1.60 1.47 0.99 0.75 0.64 0.59 0.64
0.30 0.29 0.27 0.21 0.17 0.16 0.15 0.17 0.19 0.20 0.16 0.15 0.14 0.14 0.15 0.13 0.13 0.16 0.20 0.23 0.24 0.24 0.25 0.23 0.19 0.16 0.14 0.12 0.14 0.19 0.26 0.40 0.75 1.14 1.66 2.11 2.37 1.91 1.30 0.95 0.75 0.70 0.75
0.32 0.31 0.26 0.24 0.22 0.23 0.22 0.21 0.22 0.22 0.19 0.19 0.19 0.19 0.18 0.17 0.18 0.21 0.29 0.34 0.32 0.30 0.33 0.32 0.29 0.22 0.16 0.15 0.17 0.22 0.32 0.51 0.74 1.13 1.69 2.34 2.24 1.83 1.46 1.19 0.96 0.88 0.88
0.35 0.38 0.29 0.31 0.31 0.29 0.28 0.25 0.27 0.26 0.26 0.28 0.27 0.24 0.22 0.22 0.24 0.29 0.36 0.39 0.39 0.38 0.38 0.35 0.28 0.20 0.17 0.17 0.20 0.25 0.38 0.56 0.74 1.27 1.77 2.15 1.97 1.64 1.49 1.34 1.23 1.12 1.02
0.36 0.33 0.33 0.34 0.35 0.35 0.33 0.33 0.33 0.33 0.32 0.32 0.31 0.30 0.27 0.26 0.29 0.35 0.39 0.42 0.42 0.39 0.35 0.31 0.26 0.24 0.23 0.23 0.25 0.31 0.43 0.49 0.59 1.10 1.58 1.74 1.48 1.46 1.55 1.41 1.32 1.21 1.11
0.46 0.46 0.48 0.50 0.49 0.50 0.51 0.46 0.44 0.42 0.39 0.36 0.33 0.30 0.27 0.29 0.33 0.38 0.44 0.48 0.47 0.38 0.33 0.31 0.29 0.26 0.25 0.25 0.26 0.30 0.38 0.51 0.58 0.89 1.44 1.75 1.31 1.41 1.61 1.49 1.32 1.24 1.16
0.84 0.85 0.87 0.84 0.75 0.63 0.56 0.54 0.54 0.53 0.48 0.42 0.35 0.30 0.31 0.36 0.43 0.50 0.47 0.49 0.47 0.43 0.40 0.39 0.35 0.29 0.29 0.28 0.29 0.32 0.39 0.43 0.48 0.84 1.35 1.45 1.36 1.64 1.82 1.64 1.40 1.33 1.18
1.47 1.41 1.25 1.12 0.96 0.94 0.84 0.65 0.68 0.65 0.61 0.54 0.49 0.43 0.46 0.59 0.75 0.82 0.67 0.68 0.62 0.58 0.55 0.56 0.50 0.46 0.42 0.37 0.38 0.43 0.46 0.44 0.64 0.99 1.56 1.65 1.80 1.94 2.06 1.89 1.63 1.49 1.37
1.93 1.80 1.48 1.43 1.37 1.24 1.07 0.99 0.96 0.85 0.84 0.76 0.86 0.77 0.85 1.15 1.27 1.11 1.08 0.95 0.93 0.90 0.79 0.78 0.75 0.62 0.55 0.57 0.67 0.66 0.50 0.55 0.75 1.05 1.37 1.62 1.83 2.05 2.13 1.94 1.72 1.58 1.59
1.93 1.71 1.67 1.76 1.66 1.62 1.60 1.51 1.35 1.31 1.26 1.14 1.26 1.24 1.32 1.34 1.27 1.30 1.40 1.32 1.24 1.18 1.21 1.23 1.03 0.86 0.89 0.95 0.95 0.84 0.71 0.78 0.84 1.03 1.34 1.55 1.73 2.11 2.26 2.03 1.81 1.74 1.75
2.16 1.91 1.81 1.74 1.80 1.93 1.87 1.83 1.82 1.79 1.76 1.68 1.64 1.47 1.61 1.68 1.73 1.72 1.85 1.84 1.86 1.84 1.81 1.68 1.50 1.37 1.26 1.23 1.18 1.14 1.01 0.99 1.12 1.33 1.49 1.50 1.60 1.95 2.23 2.22 2.00 1.87 1.81
2.68 2.41 2.15 2.13 2.06 2.06 2.15 2.17 1.95 2.03 2.04 2.17 2.12 1.88 1.94 1.97 2.03 2.22 2.22 2.31 2.26 2.41 2.34 2.13 1.87 1.76 1.62 1.38 1.30 1.31 1.28 1.27 1.32 1.43 1.61 1.67 1.65 1.86 2.19 2.38 2.29 2.16 2.15
2.98 2.77 2.49 2.35 2.32 2.21 2.37 2.54 2.43 2.24 2.25 2.28 2.35 2.22 2.24 2.32 2.43 2.52 2.54 2.60 2.48 2.50 2.53 2.41 2.12 1.97 1.83 1.64 1.44 1.35 1.33 1.48 1.50 1.44 1.65 1.78 1.69 1.70 1.98 2.37 2.56 2.68 2.77
3.21 2.86 2.80 2.58 2.71 2.82 3.03 2.97 2.97 2.89 2.84 2.77 2.68 2.69 2.63 2.67 2.76 2.77 2.94 2.97 2.85 2.77 2.72 2.63 2.47 2.23 2.10 2.00 1.87 1.70 1.57 1.57 1.69 1.76 1.80 1.91 1.96 1.90 2.02 2.27 2.52 2.72 2.88
3.21 3.12 3.13 2.91 2.93 3.10 3.13 3.08 3.13 3.33 3.28 3.17 3.06 3.09 3.00 3.02 3.12 3.28 3.24 3.09 2.97 2.88 2.85 2.96 2.80 2.52 2.44 2.47 2.33 2.01 1.72 1.74 1.84 1.91 1.89 1.97 2.13 2.07 2.12 2.10 2.23 2.45 2.69
3.11 3.02 3.14 3.23 3.05 3.23 3.32 3.32 3.36 3.51 3.57 3.56 3.54 3.43 3.37 3.44 3.46 3.62 3.57 3.35 3.14 3.05 3.06 2.89 2.92 2.83 2.84 2.76 2.36 2.07 1.79 1.74 1.83 1.84 1.88 1.95 2.14 2.24 2.29 2.13 2.19 2.43 2.62
3.13 3.12 3.19 3.43 3.35 3.59 3.68 3.46 3.47 3.51 3.58 3.66 3.79 3.81 3.88 3.95 3.92 3.92 3.79 3.65 3.52 3.37 3.26 3.14 3.12 3.08 2.92 2.78 2.34 2.09 1.86 1.70 1.71 1.79 1.82 1.89 1.95 1.99 2.08 2.13 2.18 2.13 2.32
3.35 3.42 3.38 3.44 3.59 3.69 3.81 3.79 3.95 3.90 3.86 4.09 4.29 4.36 4.46 4.51 4.37 4.32 4.21 4.07 3.84 3.59 3.40 3.24 3.11 2.98 2.77 2.67 2.53 2.26 1.91 1.65 1.67 1.71 1.69 1.76 1.82 1.80 1.85 1.92 2.09 2.04 1.98
3.51 3.62 3.72 3.76 3.74 3.83 4.22 4.64 5.00 5.24 5.28 5.24 5.33 5.33 5.18 5.04 4.93 4.76 4.66 4.44 4.12 3.84 3.56 3.32 3.11 2.86 2.63 2.58 2.58 2.63 2.29 1.95 1.59 1.39 1.42 1.47 1.51 1.52 1.60 1.71 1.75 1.78 1.78
3.31 3.54 3.61 3.85 4.14 4.54 5.05 5.50 5.84 6.11 6.23 6.05 5.80 5.67 5.42 5.19 5.02 4.69 4.44 4.33 4.05 3.66 3.43 3.28 3.09 2.88 2.65 2.52 2.47 2.61 2.48 2.18 1.81 1.57 1.39 1.29 1.34 1.42 1.46 1.56 1.60 1.54 1.50
2.93 3.23 3.49 3.76 4.32 5.13 5.80 6.24 6.58 6.71 6.66 6.50 6.25 5.86 5.38 4.99 4.64 4.35 4.08 3.80 3.53 3.22 2.99 2.82 2.75 2.71 2.61 2.43 2.38 2.23 2.04 1.92 1.93 1.74 1.54 1.43 1.41 1.43 1.38 1.33 1.37 1.39 1.39
2.67 2.95 3.30 3.62 4.27 4.96 5.58 6.18 6.60 6.71 6.62 6.38 5.93 5.42 4.89 4.40 3.98 3.65 3.36 3.10 2.85 2.58 2.37 2.18 2.15 2.27 2.33 2.29 2.28 2.26 2.14 2.03 1.95 1.82 1.70 1.65 1.61 1.55 1.44 1.35 1.32 1.29 1.29
2.24 2.52 2.92 3.30 3.81 4.36 4.75 5.30 5.69 5.85 5.76 5.40 4.89 4.29 3.87 3.57 3.27 2.93 2.65 2.42 2.17 1.93 1.79 1.72 1.69 1.73 1.86 1.97 2.03 2.05 2.05 2.12 2.12 2.04 1.92 1.85 1.81 1.71 1.57 1.47 1.39 1.36 1.32

GEFSSE_prec_meanprecacc_228.txt.gz
Total_Precipitation_Accumulation
0.25 0.13 0.16 0.14 0.12 0.12 0.11 0.12 0.15 0.16 0.15 0.13 0.12 0.10 0.10 0.10 0.09 0.08 0.07 0.09 0.12 0.17 0.23 0.24 0.26 0.30 0.32 0.27 0.19 0.16 0.17 0.17 0.19 0.21 0.25 0.28 0.33 0.39 0.43 0.42 0.49 0.47 0.42
0.31 0.16 0.16 0.15 0.15 0.15 0.12 0.13 0.14 0.15 0.13 0.12 0.11 0.10 0.10 0.10 0.10 0.10 0.10 0.11 0.13 0.16 0.17 0.19 0.22 0.23 0.22 0.16 0.13 0.12 0.13 0.17 0.27 0.39 0.49 0.51 0.53 0.55 0.63 0.66 0.71 0.71 0.47
0.45 0.29 0.20 0.17 0.15 0.15 0.13 0.14 0.15 0.15 0.14 0.13 0.12 0.11 0.10 0.10 0.10 0.11 0.11 0.12 0.16 0.18 0.17 0.16 0.15 0.14 0.13 0.12 0.12 0.14 0.18 0.25 0.46 0.69 1.03 1.25 1.02 0.89 0.84 0.80 0.73 0.59 0.52
0.41 0.37 0.27 0.23 0.18 0.15 0.14 0.14 0.16 0.16 0.15 0.13 0.12 0.11 0.10 0.10 0.11 0.13 0.14 0.15 0.20 0.22 0.21 0.17 0.14 0.12 0.11 0.12 0.13 0.17 0.24 0.36 0.62 0.95 1.63 1.69 1.61 1.50 1.04 0.80 0.69 0.64 0.69
0.33 0.32 0.33 0.26 0.21 0.19 0.17 0.18 0.20 0.20 0.17 0.15 0.15 0.15 0.15 0.14 0.14 0.16 0.21 0.24 0.24 0.25 0.26 0.24 0.20 0.17 0.15 0.13 0.15 0.20 0.27 0.42 0.78 1.16 1.67 2.12 2.38 1.95 1.35 1.01 0.81 0.75 0.81
0.35 0.33 0.31 0.29 0.26 0.27 0.26 0.23 0.22 0.22 0.20 0.20 0.19 0.19 0.18 0.18 0.19 0.22 0.30 0.35 0.33 0.31 0.34 0.33 0.30 0.23 0.18 0.17 0.19 0.25 0.34 0.53 0.77 1.15 1.70 2.35 2.25 1.86 1.50 1.25 1.03 0.95 0.94
0.38 0.41 0.33 0.37 0.36 0.35 0.34 0.31 0.30 0.27 0.27 0.29 0.28 0.25 0.23 0.23 0.26 0.30 0.37 0.40 0.40 0.39 0.39 0.36 0.29 0.21 0.18 0.19 0.23 0.28 0.40 0.59 0.77 1.30 1.79 2.17 1.99 1.68 1.54 1.40 1.30 1.18 1.08
0.41 0.36 0.37 0.40 0.43 0.41 0.40 0.41 0.40 0.37 0.35 0.34 0.34 0.33 0.29 0.28 0.30 0.36 0.40 0.42 0.43 0.40 0.36 0.32 0.27 0.24 0.23 0.24 0.26 0.33 0.44 0.51 0.60 1.12 1.60 1.77 1.51 1.50 1.60 1.46 1.37 1.26 1.16
0.50 0.49 0.53 0.58 0.58 0.57 0.57 0.55 0.51 0.47 0.43 0.39 0.37 0.32 0.29 0.30 0.34 0.38 0.44 0.49 0.47 0.39 0.35 0.33 0.30 0.27 0.26 0.26 0.26 0.31 0.39 0.52 0.59 0.91 1.46 1.77 1.34 1.44 1.66 1.54 1.38 1.29 1.21
0.87 0.88 0.91 0.90 0.82 0.71 0.65 0.66 0.64 0.58 0.53 0.46 0.38 0.33 0.34 0.38 0.45 0.52 0.49 0.50 0.49 0.45 0.41 0.41 0.37 0.31 0.30 0.29 0.29 0.34 0.41 0.44 0.48 0.84 1.36 1.46 1.38 1.67 1.86 1.68 1.45 1.39 1.24
1.49 1.45 1.29 1.20 1.03 1.00 0.91 0.71 0.73 0.70 0.65 0.56 0.51 0.45 0.48 0.61 0.77 0.84 0.69 0.71 0.65 0.60 0.58 0.58 0.53 0.49 0.44 0.39 0.40 0.45 0.48 0.45 0.65 1.00 1.57 1.66 1.82 1.97 2.09 1.93 1.67 1.53 1.43
1.95 1.83 1.54 1.50 1.45 1.29 1.12 1.02 0.98 0.86 0.84 0.77 0.87 0.77 0.85 1.16 1.28 1.12 1.11 0.99 0.98 0.93 0.82 0.82 0.78 0.65 0.58 0.59 0.68 0.68 0.51 0.56 0.76 1.06 1.38 1.63 1.85 2.08 2.16 1.98 1.77 1.63 1.65
1.96 1.74 1.72 1.82 1.73 1.68 1.65 1.55 1.38 1.32 1.28 1.15 1.26 1.25 1.33 1.35 1.28 1.31 1.43 1.35 1.27 1.21 1.24 1.26 1.06 0.89 0.91 0.97 0.96 0.85 0.71 0.78 0.85 1.04 1.34 1.56 1.76 2.15 2.30 2.08 1.86 1.81 1.82
2.20 1.94 1.85 1.78 1.84 1.96 1.91 1.86 1.86 1.82 1.79 1.69 1.65 1.48 1.64 1.72 1.76 1.75 1.88 1.86 1.87 1.88 1.86 1.74 1.56 1.41 1.29 1.25 1.20 1.16 1.02 1.00 1.12 1.33 1.49 1.51 1.63 1.99 2.26 2.25 2.05 1.93 1.88
2.75 2.46 2.20 2.17 2.11 2.11 2.21 2.23 2.01 2.09 2.09 2.22 2.16 1.91 1.97 2.04 2.09 2.26 2.26 2.34 2.30 2.46 2.39 2.19 1.93 1.81 1.65 1.41 1.32 1.34 1.31 1.28 1.33 1.44 1.63 1.69 1.67 1.89 2.23 2.43 2.34 2.22 2.21
3.08 2.85 2.56 2.40 2.36 2.27 2.45 2.63 2.51 2.34 2.36 2.37 2.42 2.29 2.31 2.38 2.48 2.56 2.59 2.65 2.52 2.54 2.57 2.46 2.17 2.02 1.87 1.67 1.47 1.38 1.37 1.51 1.52 1.46 1.67 1.79 1.72 1.73 2.03 2.42 2.62 2.74 2.83
3.29 2.97 2.90 2.67 2.78 2.89 3.11 3.04 3.03 2.97 2.91 2.83 2.73 2.75 2.68 2.71 2.81 2.82 2.99 3.03 2.90 2.82 2.75 2.67 2.52 2.28 2.16 2.06 1.92 1.74 1.62 1.61 1.73 1.80 1.83 1.93 1.99 1.93 2.05 2.31 2.57 2.78 2.94
3.26 3.20 3.27 3.06 3.05 3.21 3.24 3.18 3.23 3.43 3.39 3.25 3.12 3.15 3.06 3.08 3.19 3.35 3.30 3.16 3.05 2.95 2.91 3.02 2.85 2.56 2.48 2.51 2.38 2.05 1.76 1.78 1.88 1.95 1.92 1.99 2.15 2.10 2.15 2.13 2.26 2.49 2.73
3.18 3.10 3.26 3.42 3.22 3.36 3.45 3.46 3.51 3.64 3.70 3.70 3.66 3.55 3.49 3.53 3.53 3.68 3.63 3.43 3.23 3.15 3.15 2.96 2.96 2.86 2.87 2.79 2.40 2.13 1.84 1.77 1.86 1.86 1.90 1.96 2.15 2.25 2.30 2.15 2.22 2.47 2.65
3.22 3.23 3.29 3.56 3.49 3.73 3.82 3.61 3.61 3.63 3.71 3.80 3.92 3.94 4.03 4.05 3.99 3.97 3.85 3.71 3.57 3.42 3.31 3.18 3.16 3.11 2.96 2.82 2.40 2.15 1.91 1.74 1.75 1.82 1.84 1.91 1.96 1.99 2.09 2.14 2.19 2.15 2.33
3.45 3.53 3.48 3.56 3.74 3.86 3.98 3.96 4.09 4.01 3.97 4.18 4.38 4.44 4.56 4.60 4.44 4.39 4.28 4.14 3.91 3.65 3.46 3.29 3.18 3.04 2.81 2.71 2.58 2.32 1.95 1.69 1.71 1.74 1.71 1.78 1.84 1.81 1.86 1.94 2.10 2.05 1.99
3.62 3.69 3.80 3.89 3.90 4.01 4.39 4.80 5.13 5.37 5.40 5.32 5.40 5.41 5.26 5.13 5.02 4.84 4.74 4.52 4.19 3.91 3.62 3.38 3.17 2.92 2.68 2.63 2.64 2.68 2.32 1.98 1.62 1.41 1.45 1.50 1.53 1.54 1.61 1.72 1.76 1.79 1.78
3.41 3.62 3.69 3.93 4.25 4.70 5.24 5.66 5.96 6.23 6.33 6.11 5.86 5.74 5.51 5.27 5.10 4.75 4.50 4.40 4.14 3.75 3.49 3.33 3.15 2.93 2.70 2.59 2.54 2.68 2.52 2.21 1.83 1.59 1.41 1.31 1.35 1.44 1.48 1.57 1.61 1.55 1.51
3.03 3.30 3.56 3.83 4.41 5.25 5.91 6.35 6.69 6.79 6.73 6.56 6.31 5.93 5.44 5.06 4.71 4.42 4.15 3.87 3.62 3.32 3.09 2.91 2.82 2.78 2.68 2.51 2.45 2.29 2.10 1.96 1.96 1.76 1.55 1.45 1.43 1.45 1.40 1.35 1.38 1.41 1.40
2.78 3.04 3.38 3.73 4.36 5.05 5.68 6.27 6.67 6.78 6.68 6.44 5.99 5.48 4.94 4.46 4.05 3.71 3.43 3.16 2.92 2.65 2.44 2.27 2.25 2.37 2.42 2.38 2.35 2.32 2.19 2.06 1.98 1.85 1.71 1.66 1.63 1.57 1.45 1.37 1.33 1.30 1.29
2.34 2.61 3.00 3.39 3.91 4.46 4.85 5.37 5.74 5.90 5.81 5.45 4.93 4.34 3.93 3.64 3.34 3.01 2.74 2.50 2.25 2.01 1.87 1.80 1.77 1.82 1.96 2.05 2.10 2.11 2.10 2.16 2.15 2.08 1.95 1.87 1.82 1.72 1.58 1.48 1.40 1.37 1.33

GEFSSE_prec_meanprecacc_234.txt.gz
Total_Precipitation_Accumulation
0.26 0.15 0.18 0.17 0.14 0.15 0.16 0.19 0.19 0.19 0.17 0.16 0.14 0.12 0.13 0.12 0.10 0.09 0.08 0.10 0.13 0.18 0.23 0.25 0.27 0.31 0.34 0.28 0.20 0.17 0.17 0.18 0.21 0.23 0.27 0.29 0.34 0.41 0.46 0.45 0.53 0.53 0.46
0.33 0.17 0.18 0.17 0.17 0.17 0.15 0.16 0.18 0.18 0.17 0.15 0.12 0.12 0.12 0.10 0.11 0.11 0.10 0.11 0.14 0.17 0.18 0.20 0.23 0.25 0.23 0.18 0.15 0.13 0.14 0.18 0.28 0.40 0.50 0.52 0.54 0.57 0.65 0.69 0.77 0.78 0.51
0.47 0.30 0.22 0.19 0.17 0.17 0.15 0.17 0.18 0.18 0.17 0.15 0.13 0.12 0.11 0.10 0.10 0.11 0.11 0.12 0.16 0.19 0.18 0.17 0.16 0.16 0.15 0.13 0.13 0.15 0.19 0.27 0.47 0.71 1.05 1.27 1.04 0.91 0.86 0.82 0.77 0.62 0.54
0.43 0.39 0.29 0.25 0.21 0.18 0.17 0.17 0.19 0.18 0.17 0.15 0.13 0.12 0.11 0.11 0.12 0.13 0.14 0.15 0.20 0.23 0.21 0.17 0.15 0.13 0.12 0.13 0.14 0.18 0.26 0.37 0.65 0.97 1.64 1.70 1.63 1.52 1.07 0.84 0.72 0.67 0.72
0.35 0.34 0.35 0.29 0.24 0.22 0.20 0.19 0.21 0.22 0.18 0.16 0.16 0.16 0.16 0.14 0.14 0.17 0.21 0.24 0.25 0.25 0.26 0.24 0.20 0.18 0.16 0.14 0.16 0.21 0.29 0.44 0.80 1.18 1.69 2.14 2.41 1.97 1.39 1.04 0.84 0.79 0.85
0.37 0.35 0.34 0.33 0.30 0.30 0.29 0.25 0.24 0.23 0.21 0.21 0.21 0.21 0.19 0.20 0.20 0.24 0.31 0.36 0.34 0.32 0.34 0.34 0.30 0.24 0.19 0.18 0.21 0.26 0.36 0.55 0.79 1.17 1.72 2.37 2.28 1.89 1.54 1.29 1.06 0.99 0.98
0.40 0.45 0.37 0.40 0.40 0.39 0.38 0.35 0.33 0.30 0.29 0.30 0.29 0.27 0.25 0.25 0.28 0.32 0.39 0.41 0.41 0.40 0.40 0.37 0.30 0.23 0.20 0.21 0.25 0.29 0.41 0.60 0.79 1.33 1.82 2.19 2.02 1.71 1.58 1.45 1.34 1.23 1.13
0.45 0.41 0.41 0.43 0.46 0.46 0.48 0.51 0.49 0.44 0.39 0.38 0.37 0.35 0.32 0.30 0.33 0.38 0.42 0.44 0.44 0.41 0.37 0.33 0.29 0.26 0.26 0.26 0.28 0.35 0.46 0.52 0.61 1.13 1.61 1.79 1.53 1.52 1.64 1.50 1.41 1.30 1.19
0.55 0.54 0.58 0.63 0.65 0.66 0.68 0.68 0.66 0.59 0.52 0.46 0.42 0.36 0.33 0.33 0.36 0.40 0.47 0.51 0.50 0.41 0.36 0.34 0.32 0.29 0.29 0.28 0.29 0.34 0.41 0.53 0.60 0.91 1.46 1.79 1.35 1.46 1.68 1.58 1.42 1.34 1.26
0.92 0.93 0.96 0.95 0.88 0.79 0.74 0.75 0.72 0.66 0.60 0.52 0.43 0.37 0.37 0.41 0.47 0.54 0.50 0.53 0.53 0.49 0.44 0.43 0.38 0.33 0.32 0.31 0.31 0.36 0.44 0.46 0.49 0.85 1.37 1.48 1.39 1.68 1.89 1.71 1.49 1.43 1.29
1.52 1.49 1.34 1.27 1.10 1.10 1.01 0.79 0.79 0.75 0.70 0.61 0.55 0.49 0.51 0.62 0.79 0.86 0.70 0.73 0.68 0.63 0.60 0.60 0.55 0.51 0.46 0.41 0.42 0.48 0.52 0.48 0.66 1.01 1.58 1.67 1.82 1.98 2.11 1.96 1.70 1.57 1.47
1.98 1.87 1.58 1.55 1.52 1.37 1.19 1.11 1.06 0.93 0.90 0.81 0.90 0.80 0.87 1.18 1.29 1.14 1.12 1.02 1.01 0.96 0.85 0.84 0.80 0.67 0.60 0.61 0.71 0.72 0.55 0.59 0.77 1.07 1.40 1.64 1.86 2.10 2.18 2.01 1.80 1.67 1.69
1.99 1.78 1.75 1.87 1.78 1.73 1.70 1.64 1.47 1.40 1.33 1.19 1.29 1.27 1.35 1.36 1.30 1.33 1.45 1.38 1.31 1.25 1.28 1.30 1.09 0.91 0.95 1.01 1.00 0.88 0.76 0.83 0.88 1.06 1.35 1.57 1.78 2.17 2.32 2.12 1.91 1.84 1.86
2.22 1.98 1.89 1.83 1.89 2.01 1.95 1.92 1.93 1.89 1.85 1.74 1.70 1.52 1.66 1.74 1.78 1.78 1.91 1.90 1.91 1.92 1.92 1.81 1.62 1.47 1.34 1.30 1.24 1.20 1.06 1.04 1.17 1.37 1.53 1.54 1.65 2.02 2.30 2.29 2.08 1.95 1.90
2.78 2.50 2.25 2.22 2.16 2.16 2.25 2.28 2.05 2.14 2.15 2.28 2.23 1.98 2.03 2.08 2.13 2.31 2.31 2.39 2.35 2.51 2.44 2.24 1.99 1.89 1.74 1.47 1.36 1.37 1.34 1.33 1.37 1.48 1.67 1.71 1.71 1.93 2.27 2.47 2.38 2.26 2.25
3.10 2.89 2.61 2.44 2.40 2.33 2.50 2.67 2.55 2.38 2.42 2.45 2.53 2.40 2.40 2.45 2.52 2.60 2.63 2.69 2.57 2.58 2.62 2.52 2.24 2.11 1.96 1.73 1.51 1.41 1.40 1.56 1.57 1.51 1.71 1.84 1.76 1.78 2.08 2.48 2.67 2.79 2.88
3.31 3.00 2.94 2.71 2.81 2.94 3.16 3.08 3.07 3.01 2.95 2.86 2.79 2.83 2.77 2.79 2.86 2.86 3.03 3.07 2.94 2.88 2.84 2.77 2.62 2.37 2.22 2.11 1.96 1.78 1.65 1.65 1.77 1.85 1.88 1.99 2.05 2.00 2.12 2.39 2.65 2.84 2.99
3.29 3.22 3.30 3.09 3.08 3.25 3.27 3.21 3.26 3.46 3.41 3.28 3.15 3.20 3.10 3.14 3.26 3.41 3.34 3.20 3.11 3.03 3.02 3.14 2.95 2.62 2.51 2.55 2.43 2.10 1.80 1.82 1.92 1.99 1.96 2.04 2.22 2.17 2.22 2.20 2.33 2.55 2.78
3.21 3.13 3.30 3.46 3.25 3.39 3.47 3.50 3.57 3.71 3.76 3.74 3.70 3.60 3.54 3.59 3.60 3.75 3.69 3.50 3.31 3.23 3.23 3.03 3.02 2.91 2.90 2.83 2.45 2.19 1.90 1.82 1.91 1.91 1.95 2.01 2.20 2.29 2.36 2.20 2.28 2.53 2.70
3.25 3.28 3.34 3.61 3.54 3.78 3.86 3.66 3.71 3.74 3.78 3.86 3.98 4.01 4.09 4.13 4.06 4.04 3.92 3.79 3.66 3.50 3.38 3.25 3.22 3.17 3.01 2.87 2.45 2.20 1.99 1.82 1.81 1.88 1.90 1.97 2.01 2.03 2.13 2.17 2.23 2.18 2.37
3.48 3.58 3.55 3.62 3.79 3.91 4.03 4.02 4.17 4.10 4.02 4.22 4.43 4.49 4.62 4.68 4.53 4.48 4.35 4.22 4.00 3.73 3.54 3.37 3.25 3.10 2.86 2.76 2.64 2.36 2.01 1.76 1.77 1.77 1.74 1.82 1.87 1.84 1.89 1.96 2.14 2.08 2.01
3.65 3.75 3.87 3.96 3.95 4.06 4.45 4.87 5.19 5.44 5.45 5.37 5.45 5.47 5.32 5.19 5.10 4.96 4.86 4.60 4.27 4.00 3.70 3.45 3.24 2.97 2.74 2.69 2.69 2.73 2.37 2.03 1.67 1.45 1.48 1.53 1.56 1.57 1.63 1.74 1.79 1.82 1.82
3.44 3.66 3.75 3.99 4.31 4.76 5.31 5.73 6.03 6.31 6.40 6.18 5.94 5.81 5.55 5.31 5.16 4.85 4.61 4.50 4.22 3.82 3.56 3.39 3.20 2.98 2.76 2.64 2.59 2.75 2.59 2.27 1.89 1.64 1.44 1.33 1.38 1.47 1.51 1.61 1.64 1.58 1.54
3.05 3.34 3.61 3.89 4.46 5.33 5.98 6.41 6.76 6.87 6.79 6.62 6.38 6.00 5.50 5.11 4.77 4.49 4.23 3.95 3.70 3.38 3.15 2.96 2.88 2.84 2.74 2.56 2.51 2.36 2.18 2.04 2.03 1.82 1.60 1.48 1.45 1.48 1.44 1.38 1.41 1.44 1.44
2.83 3.09 3.44 3.78 4.43 5.11 5.73 6.31 6.73 6.84 6.75 6.51 6.05 5.53 4.99 4.51 4.09 3.76 3.50 3.25 3.00 2.71 2.50 2.32 2.30 2.42 2.48 2.43 2.41 2.37 2.25 2.12 2.03 1.90 1.76 1.70 1.66 1.59 1.49 1.40 1.36 1.34 1.32
2.39 2.67 3.06 3.45 3.97 4.52 4.92 5.42 5.80 5.97 5.87 5.50 4.99 4.39 3.97 3.68 3.39 3.06 2.79 2.55 2.30 2.06 1.91 1.84 1.81 1.87 2.01 2.10 2.15 2.16 2.15 2.20 2.19 2.14 2.00 1.91 1.86 1.75 1.61 1.50 1.43 1.40 1.36

GEFSSE_prec_meanprecacc_240.txt.gz
Total_Precipitation_Accumulation
0.28 0.15 0.18 0.17 0.15 0.16 0.16 0.20 0.21 0.20 0.19 0.17 0.15 0.14 0.13 0.12 0.11 0.09 0.09 0.10 0.13 0.18 0.23 0.25 0.27 0.32 0.34 0.28 0.21 0.17 0.18 0.19 0.21 0.24 0.27 0.30 0.34 0.42 0.48 0.50 0.58 0.60 0.53
0.34 0.18 0.18 0.18 0.18 0.18 0.15 0.17 0.19 0.20 0.18 0.16 0.14 0.13 0.13 0.11 0.11 0.11 0.11 0.12 0.14 0.18 0.18 0.20 0.23 0.25 0.23 0.18 0.15 0.14 0.14 0.18 0.28 0.41 0.51 0.54 0.55 0.58 0.66 0.72 0.83 0.87 0.59
0.48 0.32 0.23 0.20 0.18 0.18 0.16 0.18 0.19 0.19 0.20 0.18 0.15 0.13 0.12 0.10 0.11 0.11 0.11 0.13 0.17 0.19 0.18 0.17 0.17 0.16 0.15 0.13 0.13 0.15 0.20 0.27 0.48 0.71 1.07 1.34 1.09 0.93 0.87 0.85 0.81 0.67 0.60
0.45 0.42 0.31 0.27 0.22 0.19 0.18 0.18 0.21 0.20 0.18 0.16 0.15 0.13 0.12 0.12 0.12 0.13 0.14 0.16 0.21 0.23 0.22 0.18 0.15 0.13 0.13 0.13 0.14 0.18 0.26 0.37 0.65 0.97 1.68 1.78 1.69 1.56 1.10 0.86 0.75 0.71 0.80
0.38 0.38 0.37 0.30 0.25 0.24 0.21 0.22 0.24 0.24 0.20 0.18 0.18 0.18 0.18 0.16 0.15 0.18 0.22 0.25 0.26 0.27 0.27 0.25 0.20 0.18 0.16 0.15 0.17 0.22 0.29 0.44 0.80 1.19 1.71 2.18 2.47 2.01 1.42 1.07 0.86 0.82 0.95
0.40 0.38 0.36 0.34 0.31 0.32 0.31 0.28 0.27 0.26 0.23 0.23 0.23 0.23 0.22 0.22 0.22 0.25 0.32 0.37 0.36 0.33 0.36 0.35 0.31 0.25 0.20 0.19 0.22 0.27 0.37 0.56 0.81 1.19 1.73 2.39 2.31 1.91 1.58 1.33 1.10 1.02 1.03
0.45 0.49 0.39 0.41 0.41 0.40 0.40 0.38 0.36 0.32 0.31 0.33 0.32 0.29 0.27 0.28 0.30 0.34 0.41 0.42 0.42 0.41 0.41 0.38 0.31 0.24 0.22 0.22 0.26 0.31 0.42 0.61 0.80 1.35 1.83 2.21 2.04 1.73 1.61 1.48 1.37 1.26 1.16
0.49 0.46 0.45 0.45 0.48 0.48 0.50 0.54 0.52 0.46 0.43 0.42 0.41 0.38 0.34 0.32 0.35 0.40 0.44 0.45 0.45 0.42 0.38 0.35 0.31 0.29 0.28 0.28 0.30 0.37 0.47 0.53 0.62 1.13 1.63 1.81 1.55 1.53 1.65 1.53 1.43 1.32 1.22
0.59 0.58 0.63 0.66 0.67 0.68 0.69 0.70 0.69 0.62 0.56 0.51 0.47 0.40 0.36 0.36 0.38 0.42 0.48 0.52 0.52 0.44 0.38 0.36 0.34 0.32 0.31 0.30 0.30 0.35 0.43 0.55 0.61 0.92 1.48 1.81 1.36 1.47 1.70 1.60 1.44 1.37 1.28
0.96 0.98 1.02 0.99 0.91 0.81 0.76 0.78 0.76 0.69 0.63 0.55 0.46 0.41 0.41 0.44 0.50 0.57 0.52 0.54 0.54 0.51 0.46 0.45 0.40 0.34 0.34 0.33 0.33 0.38 0.46 0.48 0.50 0.86 1.41 1.50 1.40 1.70 1.90 1.73 1.51 1.45 1.32
1.56 1.55 1.42 1.33 1.15 1.15 1.08 0.84 0.84 0.78 0.72 0.63 0.57 0.52 0.54 0.65 0.81 0.88 0.73 0.75 0.70 0.66 0.63 0.62 0.57 0.53 0.48 0.42 0.44 0.50 0.54 0.50 0.69 1.03 1.61 1.69 1.84 2.00 2.12 1.97 1.71 1.59 1.50
2.02 1.94 1.64 1.61 1.58 1.46 1.33 1.23 1.16 0.98 0.94 0.84 0.94 0.83 0.91 1.22 1.32 1.16 1.15 1.04 1.04 0.99 0.88 0.87 0.83 0.70 0.62 0.63 0.74 0.75 0.57 0.61 0.80 1.09 1.42 1.67 1.89 2.12 2.20 2.02 1.82 1.69 1.71
2.02 1.84 1.82 1.92 1.84 1.83 1.86 1.80 1.62 1.50 1.41 1.25 1.36 1.32 1.40 1.42 1.33 1.36 1.49 1.44 1.36 1.29 1.32 1.34 1.14 0.95 0.97 1.03 1.02 0.92 0.79 0.87 0.92 1.08 1.38 1.59 1.81 2.19 2.34 2.13 1.93 1.86 1.88
2.25 2.02 1.95 1.89 1.96 2.11 2.07 2.05 2.07 2.00 1.94 1.83 1.79 1.59 1.73 1.80 1.83 1.83 1.97 1.97 1.98 1.99 1.98 1.87 1.67 1.50 1.36 1.33 1.27 1.22 1.08 1.07 1.20 1.41 1.56 1.57 1.69 2.05 2.32 2.31 2.10 1.97 1.93
2.81 2.54 2.32 2.32 2.25 2.24 2.35 2.37 2.15 2.23 2.23 2.36 2.31 2.03 2.08 2.13 2.18 2.37 2.37 2.47 2.42 2.56 2.48 2.29 2.04 1.92 1.78 1.52 1.41 1.43 1.40 1.38 1.42 1.52 1.71 1.76 1.75 1.97 2.30 2.49 2.41 2.28 2.28
3.12 2.92 2.68 2.54 2.50 2.42 2.58 2.76 2.64 2.45 2.50 2.53 2.62 2.45 2.44 2.50 2.58 2.66 2.70 2.78 2.65 2.65 2.68 2.57 2.29 2.16 2.01 1.78 1.55 1.45 1.44 1.60 1.61 1.55 1.76 1.90 1.82 1.83 2.12 2.51 2.71 2.83 2.92
3.34 3.04 3.01 2.80 2.91 3.04 3.25 3.18 3.16 3.10 3.03 2.94 2.87 2.92 2.83 2.84 2.93 2.93 3.10 3.15 3.01 2.94 2.90 2.83 2.68 2.43 2.27 2.16 2.01 1.83 1.71 1.70 1.82 1.91 1.95 2.07 2.12 2.07 2.19 2.44 2.70 2.89 3.03
3.33 3.26 3.36 3.16 3.15 3.33 3.38 3.32 3.34 3.55 3.52 3.37 3.23 3.27 3.18 3.21 3.33 3.49 3.43 3.27 3.19 3.10 3.09 3.22 3.03 2.70 2.59 2.62 2.49 2.15 1.86 1.89 1.98 2.04 2.04 2.14 2.32 2.25 2.29 2.27 2.39 2.61 2.84
3.24 3.17 3.34 3.51 3.32 3.46 3.55 3.59 3.66 3.82 3.89 3.85 3.80 3.69 3.63 3.68 3.69 3.83 3.77 3.59 3.40 3.31 3.31 3.10 3.09 2.99 2.98 2.90 2.51 2.26 1.96 1.89 1.97 1.96 2.00 2.08 2.29 2.39 2.43 2.26 2.33 2.59 2.77
3.28 3.32 3.40 3.68 3.62 3.87 3.95 3.76 3.81 3.85 3.91 4.00 4.09 4.09 4.18 4.21 4.13 4.11 3.99 3.87 3.74 3.58 3.47 3.33 3.30 3.25 3.08 2.94 2.52 2.28 2.07 1.88 1.88 1.95 1.96 2.03 2.07 2.10 2.19 2.24 2.30 2.24 2.43
3.52 3.63 3.61 3.70 3.87 4.00 4.13 4.12 4.25 4.19 4.11 4.31 4.50 4.56 4.68 4.74 4.59 4.53 4.42 4.31 4.08 3.82 3.64 3.47 3.34 3.18 2.94 2.84 2.71 2.43 2.07 1.82 1.85 1.85 1.80 1.87 1.93 1.89 1.93 2.01 2.20 2.15 2.08
3.68 3.79 3.92 4.02 4.02 4.14 4.54 4.96 5.28 5.53 5.53 5.44 5.53 5.56 5.40 5.27 5.18 5.02 4.94 4.69 4.35 4.08 3.78 3.53 3.34 3.08 2.84 2.80 2.79 2.83 2.45 2.11 1.73 1.50 1.53 1.57 1.60 1.60 1.67 1.77 1.82 1.87 1.87
3.47 3.70 3.79 4.04 4.36 4.83 5.40 5.81 6.12 6.39 6.46 6.25 6.02 5.91 5.64 5.41 5.27 4.97 4.73 4.60 4.31 3.89 3.64 3.47 3.27 3.06 2.84 2.73 2.67 2.85 2.70 2.35 1.95 1.69 1.48 1.37 1.42 1.52 1.56 1.66 1.68 1.63 1.59
3.09 3.39 3.68 3.95 4.53 5.41 6.07 6.51 6.85 6.95 6.87 6.70 6.47 6.09 5.59 5.21 4.88 4.61 4.35 4.08 3.82 3.48 3.23 3.02 2.95 2.91 2.81 2.63 2.58 2.44 2.27 2.16 2.14 1.90 1.66 1.53 1.50 1.52 1.48 1.41 1.45 1.49 1.50
2.88 3.15 3.50 3.85 4.51 5.20 5.83 6.41 6.83 6.94 6.85 6.61 6.15 5.64 5.07 4.60 4.19 3.85 3.59 3.34 3.11 2.81 2.58 2.38 2.36 2.49 2.54 2.48 2.47 2.44 2.33 2.23 2.14 2.00 1.84 1.78 1.73 1.63 1.51 1.43 1.40 1.38 1.37
2.45 2.74 3.12 3.53 4.07 4.64 5.04 5.55 5.92 6.09 5.98 5.61 5.09 4.49 4.06 3.75 3.46 3.14 2.86 2.62 2.37 2.13 1.97 1.89 1.86 1.92 2.07 2.16 2.21 2.23 2.22 2.29 2.28 2.24 2.10 1.99 1.93 1.79 1.65 1.54 1.46 1.43 1.39